Wetterdaten: Donnerstag, 23.07.2015
Datum Zeit Temp. Aussen +5cm Feuchte Auss BlattFeu 1 Luftdruck Regen Sonnenschein Regendauer Solar Windben
23.07.2015 00:00 19,2 C 17,2 C 77 % 0 lf 1014,8 hPa 0,0 l/m 0 min 0 min 0 W/m 4,2 km/h (1 Bft)
23.07.2015 00:02 19,2 C 17,2 C 77 % 0 lf 1014,8 hPa 0,0 l/m 0 min 0 min 0 W/m 6,3 km/h (2 Bft)
23.07.2015 00:05 19,2 C 17,2 C 77 % 0 lf 1014,8 hPa 0,0 l/m 0 min 0 min 0 W/m 6,3 km/h (2 Bft)
23.07.2015 00:08 19,2 C 17,2 C 77 % 0 lf 1014,8 hPa 0,0 l/m 0 min 0 min 0 W/m 6,3 km/h (2 Bft)
23.07.2015 00:10 19,2 C 17,2 C 77 % 0 lf 1014,8 hPa 0,0 l/m 0 min 0 min 0 W/m 2,1 km/h (1 Bft)
23.07.2015 00:12 19,2 C 17,2 C 77 % 0 lf 1014,7 hPa 0,0 l/m 0 min 0 min 0 W/m 4,2 km/h (1 Bft)
23.07.2015 00:14 19,2 C 16,7 C 77 % 0 lf 1014,6 hPa 0,0 l/m 0 min 0 min 0 W/m 2,1 km/h (1 Bft)
23.07.2015 00:16 19,2 C 16,7 C 77 % 0 lf 1014,6 hPa 0,0 l/m 0 min 0 min 0 W/m 2,1 km/h (1 Bft)
23.07.2015 00:18 19,1 C 16,7 C 77 % 0 lf 1014,7 hPa 0,0 l/m 0 min 0 min 0 W/m 2,1 km/h (1 Bft)
23.07.2015 00:20 19,1 C 16,7 C 77 % 0 lf 1014,7 hPa 0,0 l/m 0 min 0 min 0 W/m 4,2 km/h (1 Bft)
23.07.2015 00:22 19,1 C 16,7 C 77 % 0 lf 1014,8 hPa 0,0 l/m 0 min 0 min 0 W/m 4,2 km/h (1 Bft)
23.07.2015 00:24 19,1 C 16,7 C 77 % 0 lf 1014,8 hPa 0,0 l/m 0 min 0 min 0 W/m 4,2 km/h (1 Bft)
23.07.2015 00:26 19,1 C 16,1 C 77 % 0 lf 1014,7 hPa 0,0 l/m 0 min 0 min 0 W/m 4,2 km/h (1 Bft)
23.07.2015 00:28 19,1 C 16,1 C 77 % 0 lf 1014,7 hPa 0,0 l/m 0 min 0 min 0 W/m 4,2 km/h (1 Bft)
23.07.2015 00:30 19,0 C 16,1 C 77 % 0 lf 1014,7 hPa 0,0 l/m 0 min 0 min 0 W/m 2,1 km/h (1 Bft)
23.07.2015 00:32 19,0 C 16,1 C 77 % 0 lf 1014,7 hPa 0,0 l/m 0 min 0 min 0 W/m 4,2 km/h (1 Bft)
23.07.2015 00:34 19,0 C 16,1 C 77 % 0 lf 1014,8 hPa 0,0 l/m 0 min 0 min 0 W/m 4,2 km/h (1 Bft)
23.07.2015 00:36 18,9 C 16,1 C 77 % 0 lf 1014,8 hPa 0,0 l/m 0 min 0 min 0 W/m 2,1 km/h (1 Bft)
23.07.2015 00:38 18,9 C 16,1 C 77 % 0 lf 1014,8 hPa 0,0 l/m 0 min 0 min 0 W/m 4,2 km/h (1 Bft)
23.07.2015 00:40 18,9 C 16,1 C 77 % 0 lf 1014,8 hPa 0,0 l/m 0 min 0 min 0 W/m 6,3 km/h (2 Bft)
23.07.2015 00:42 18,9 C 16,1 C 77 % 0 lf 1014,8 hPa 0,0 l/m 0 min 0 min 0 W/m 4,2 km/h (1 Bft)
23.07.2015 00:44 18,8 C 16,1 C 78 % 0 lf 1014,7 hPa 0,0 l/m 0 min 0 min 0 W/m 6,3 km/h (2 Bft)
23.07.2015 00:46 18,8 C 16,1 C 78 % 0 lf 1014,8 hPa 0,0 l/m 0 min 0 min 0 W/m 6,3 km/h (2 Bft)
23.07.2015 00:48 18,8 C 16,1 C 78 % 0 lf 1014,8 hPa 0,0 l/m 0 min 0 min 0 W/m 6,3 km/h (2 Bft)
23.07.2015 00:50 18,7 C 16,1 C 78 % 0 lf 1014,8 hPa 0,0 l/m 0 min 0 min 0 W/m 6,3 km/h (2 Bft)
23.07.2015 00:52 18,7 C 16,1 C 78 % 0 lf 1014,8 hPa 0,0 l/m 0 min 0 min 0 W/m 6,3 km/h (2 Bft)
23.07.2015 00:54 18,7 C 16,1 C 78 % 0 lf 1014,8 hPa 0,0 l/m 0 min 0 min 0 W/m 4,2 km/h (1 Bft)
23.07.2015 00:56 18,7 C 16,1 C 78 % 0 lf 1014,8 hPa 0,0 l/m 0 min 0 min 0 W/m 8,4 km/h (2 Bft)
23.07.2015 00:58 18,6 C 16,1 C 78 % 0 lf 1014,9 hPa 0,0 l/m 0 min 0 min 0 W/m 6,3 km/h (2 Bft)
23.07.2015 01:00 18,6 C 16,1 C 79 % 0 lf 1014,9 hPa 0,0 l/m 0 min 0 min 0 W/m 8,4 km/h (2 Bft)
23.07.2015 01:02 18,6 C 16,1 C 79 % 0 lf 1014,9 hPa 0,0 l/m 0 min 0 min 0 W/m 8,4 km/h (2 Bft)
23.07.2015 01:04 18,5 C 16,7 C 79 % 0 lf 1014,9 hPa 0,0 l/m 0 min 0 min 0 W/m 8,4 km/h (2 Bft)
23.07.2015 01:06 18,5 C 16,7 C 79 % 0 lf 1014,9 hPa 0,0 l/m 0 min 0 min 0 W/m 6,3 km/h (2 Bft)
23.07.2015 01:08 18,4 C 16,7 C 79 % 0 lf 1014,9 hPa 0,0 l/m 0 min 0 min 0 W/m 10,5 km/h (2 Bft)
23.07.2015 01:10 18,4 C 16,7 C 79 % 0 lf 1015,0 hPa 0,0 l/m 0 min 0 min 0 W/m 12,6 km/h (3 Bft)
23.07.2015 01:12 18,4 C 16,1 C 79 % 0 lf 1015,0 hPa 0,0 l/m 0 min 0 min 0 W/m 8,4 km/h (2 Bft)
23.07.2015 01:14 18,3 C 16,1 C 79 % 0 lf 1014,9 hPa 0,0 l/m 0 min 0 min 0 W/m 10,5 km/h (2 Bft)
23.07.2015 01:16 18,3 C 16,1 C 79 % 0 lf 1014,9 hPa 0,0 l/m 0 min 0 min 0 W/m 10,5 km/h (2 Bft)
23.07.2015 01:18 18,3 C 16,1 C 79 % 0 lf 1014,9 hPa 0,0 l/m 0 min 0 min 0 W/m 10,5 km/h (2 Bft)
23.07.2015 01:20 18,3 C 16,7 C 78 % 0 lf 1014,9 hPa 0,0 l/m 0 min 0 min 0 W/m 12,6 km/h (3 Bft)
23.07.2015 01:22 18,2 C 16,7 C 78 % 0 lf 1014,9 hPa 0,0 l/m 0 min 0 min 0 W/m 10,5 km/h (2 Bft)
23.07.2015 01:24 18,2 C 16,7 C 78 % 0 lf 1015,0 hPa 0,0 l/m 0 min 0 min 0 W/m 10,5 km/h (2 Bft)
23.07.2015 01:26 18,2 C 16,7 C 78 % 0 lf 1015,0 hPa 0,0 l/m 0 min 0 min 0 W/m 6,3 km/h (2 Bft)
23.07.2015 01:28 18,2 C 16,7 C 78 % 0 lf 1015,0 hPa 0,0 l/m 0 min 0 min 0 W/m 18,8 km/h (3 Bft)
23.07.2015 01:30 18,2 C 16,7 C 78 % 0 lf 1015,0 hPa 0,0 l/m 0 min 0 min 0 W/m 16,7 km/h (3 Bft)
23.07.2015 01:32 18,1 C 16,7 C 77 % 0 lf 1014,9 hPa 0,0 l/m 0 min 0 min 0 W/m 10,5 km/h (2 Bft)
23.07.2015 01:34 18,1 C 16,7 C 77 % 0 lf 1015,0 hPa 0,0 l/m 0 min 0 min 0 W/m 14,6 km/h (3 Bft)
23.07.2015 01:36 18,1 C 16,7 C 77 % 0 lf 1015,0 hPa 0,0 l/m 0 min 0 min 0 W/m 10,5 km/h (2 Bft)
23.07.2015 01:38 18,1 C 16,7 C 77 % 0 lf 1015,0 hPa 0,0 l/m 0 min 0 min 0 W/m 14,6 km/h (3 Bft)
23.07.2015 01:40 18,1 C 16,7 C 77 % 0 lf 1015,0 hPa 0,0 l/m 0 min 0 min 0 W/m 8,4 km/h (2 Bft)
23.07.2015 01:42 18,1 C 16,7 C 77 % 0 lf 1015,0 hPa 0,0 l/m 0 min 0 min 0 W/m 10,5 km/h (2 Bft)
23.07.2015 01:44 18,1 C 16,7 C 77 % 0 lf 1015,0 hPa 0,0 l/m 0 min 0 min 0 W/m 18,8 km/h (3 Bft)
23.07.2015 01:46 18,1 C 16,7 C 77 % 0 lf 1015,0 hPa 0,0 l/m 0 min 0 min 0 W/m 10,5 km/h (2 Bft)
23.07.2015 01:48 18,1 C 16,7 C 77 % 0 lf 1015,0 hPa 0,0 l/m 0 min 0 min 0 W/m 12,6 km/h (3 Bft)
23.07.2015 01:50 18,1 C 16,7 C 77 % 0 lf 1015,0 hPa 0,0 l/m 0 min 0 min 0 W/m 10,5 km/h (2 Bft)
23.07.2015 01:52 18,1 C 16,7 C 77 % 0 lf 1015,0 hPa 0,0 l/m 0 min 0 min 0 W/m 10,5 km/h (2 Bft)
23.07.2015 01:54 18,1 C 16,7 C 77 % 0 lf 1015,0 hPa 0,0 l/m 0 min 0 min 0 W/m 16,7 km/h (3 Bft)
23.07.2015 01:56 18,1 C 16,7 C 77 % 0 lf 1015,0 hPa 0,0 l/m 0 min 0 min 0 W/m 12,6 km/h (3 Bft)
23.07.2015 01:58 18,1 C 16,7 C 77 % 0 lf 1015,0 hPa 0,0 l/m 0 min 0 min 0 W/m 16,7 km/h (3 Bft)
23.07.2015 02:00 18,1 C 16,7 C 77 % 0 lf 1015,0 hPa 0,0 l/m 0 min 0 min 0 W/m 18,8 km/h (3 Bft)
23.07.2015 02:02 18,1 C 16,7 C 77 % 0 lf 1015,0 hPa 0,0 l/m 0 min 0 min 0 W/m 10,5 km/h (2 Bft)
23.07.2015 02:04 18,2 C 16,7 C 76 % 0 lf 1015,1 hPa 0,0 l/m 0 min 0 min 0 W/m 8,4 km/h (2 Bft)
23.07.2015 02:06 18,2 C 16,7 C 76 % 0 lf 1015,1 hPa 0,0 l/m 0 min 0 min 0 W/m 10,5 km/h (2 Bft)
23.07.2015 02:08 18,1 C 16,7 C 76 % 0 lf 1015,2 hPa 0,0 l/m 0 min 0 min 0 W/m 12,6 km/h (3 Bft)
23.07.2015 02:10 18,2 C 16,7 C 76 % 0 lf 1015,1 hPa 0,0 l/m 0 min 0 min 0 W/m 14,6 km/h (3 Bft)
23.07.2015 02:12 18,1 C 16,7 C 76 % 0 lf 1015,1 hPa 0,0 l/m 0 min 0 min 0 W/m 16,7 km/h (3 Bft)
23.07.2015 02:14 18,2 C 16,7 C 76 % 0 lf 1015,1 hPa 0,0 l/m 0 min 0 min 0 W/m 14,6 km/h (3 Bft)
23.07.2015 02:16 18,1 C 16,7 C 76 % 0 lf 1015,1 hPa 0,0 l/m 0 min 0 min 0 W/m 16,7 km/h (3 Bft)
23.07.2015 02:18 18,1 C 16,7 C 76 % 0 lf 1015,1 hPa 0,0 l/m 0 min 0 min 0 W/m 23,0 km/h (4 Bft)
23.07.2015 02:20 18,1 C 16,7 C 76 % 0 lf 1015,1 hPa 0,0 l/m 0 min 0 min 0 W/m 16,7 km/h (3 Bft)
23.07.2015 02:22 18,1 C 16,7 C 76 % 0 lf 1015,1 hPa 0,0 l/m 0 min 0 min 0 W/m 14,6 km/h (3 Bft)
23.07.2015 02:24 18,1 C 16,1 C 76 % 0 lf 1015,2 hPa 0,0 l/m 0 min 0 min 0 W/m 16,7 km/h (3 Bft)
23.07.2015 02:26 18,1 C 16,1 C 76 % 0 lf 1015,2 hPa 0,0 l/m 0 min 0 min 0 W/m 14,6 km/h (3 Bft)
23.07.2015 02:28 18,1 C 16,1 C 76 % 0 lf 1015,3 hPa 0,0 l/m 0 min 0 min 0 W/m 10,5 km/h (2 Bft)
23.07.2015 02:30 18,1 C 16,1 C 76 % 0 lf 1015,3 hPa 0,0 l/m 0 min 0 min 0 W/m 12,6 km/h (3 Bft)
23.07.2015 02:32 18,1 C 16,1 C 76 % 0 lf 1015,3 hPa 0,0 l/m 0 min 0 min 0 W/m 12,6 km/h (3 Bft)
23.07.2015 02:34 18,1 C 16,1 C 77 % 0 lf 1015,3 hPa 0,0 l/m 0 min 0 min 0 W/m 16,7 km/h (3 Bft)
23.07.2015 02:36 18,1 C 16,1 C 77 % 0 lf 1015,3 hPa 0,0 l/m 0 min 0 min 0 W/m 10,5 km/h (2 Bft)
23.07.2015 02:38 18,0 C 16,1 C 77 % 0 lf 1015,3 hPa 0,0 l/m 0 min 0 min 0 W/m 14,6 km/h (3 Bft)
23.07.2015 02:40 17,9 C 16,1 C 77 % 0 lf 1015,3 hPa 0,0 l/m 0 min 0 min 0 W/m 12,6 km/h (3 Bft)
23.07.2015 02:42 17,9 C 16,1 C 77 % 0 lf 1015,3 hPa 0,0 l/m 0 min 0 min 0 W/m 10,5 km/h (2 Bft)
23.07.2015 02:44 17,9 C 15,6 C 77 % 0 lf 1015,3 hPa 0,0 l/m 0 min 0 min 0 W/m 8,4 km/h (2 Bft)
23.07.2015 02:46 17,8 C 15,6 C 77 % 0 lf 1015,4 hPa 0,0 l/m 0 min 0 min 0 W/m 8,4 km/h (2 Bft)
23.07.2015 02:48 17,8 C 15,6 C 77 % 0 lf 1015,4 hPa 0,0 l/m 0 min 0 min 0 W/m 16,7 km/h (3 Bft)
23.07.2015 02:50 17,8 C 15,6 C 77 % 0 lf 1015,5 hPa 0,0 l/m 0 min 0 min 0 W/m 12,6 km/h (3 Bft)
23.07.2015 02:52 17,8 C 15,6 C 77 % 0 lf 1015,5 hPa 0,0 l/m 0 min 0 min 0 W/m 10,5 km/h (2 Bft)
23.07.2015 02:54 17,7 C 15,6 C 77 % 0 lf 1015,4 hPa 0,0 l/m 0 min 0 min 0 W/m 6,3 km/h (2 Bft)
23.07.2015 02:56 17,7 C 15,6 C 78 % 0 lf 1015,4 hPa 0,0 l/m 0 min 0 min 0 W/m 8,4 km/h (2 Bft)
23.07.2015 02:58 17,7 C 15,6 C 78 % 0 lf 1015,4 hPa 0,0 l/m 0 min 0 min 0 W/m 8,4 km/h (2 Bft)
23.07.2015 03:00 17,6 C 15,0 C 78 % 0 lf 1015,4 hPa 0,0 l/m 0 min 0 min 0 W/m 6,3 km/h (2 Bft)
23.07.2015 03:02 17,6 C 15,0 C 78 % 0 lf 1015,4 hPa 0,0 l/m 0 min 0 min 0 W/m 4,2 km/h (1 Bft)
23.07.2015 03:04 17,6 C 15,0 C 78 % 0 lf 1015,4 hPa 0,0 l/m 0 min 0 min 0 W/m 4,2 km/h (1 Bft)
23.07.2015 03:06 17,5 C 15,0 C 78 % 0 lf 1015,4 hPa 0,0 l/m 0 min 0 min 0 W/m 2,1 km/h (1 Bft)
23.07.2015 03:08 17,4 C 15,0 C 78 % 0 lf 1015,4 hPa 0,0 l/m 0 min 0 min 0 W/m 8,4 km/h (2 Bft)
23.07.2015 03:10 17,4 C 15,0 C 78 % 0 lf 1015,4 hPa 0,0 l/m 0 min 0 min 0 W/m 4,2 km/h (1 Bft)
23.07.2015 03:12 17,4 C 15,0 C 78 % 0 lf 1015,4 hPa 0,0 l/m 0 min 0 min 0 W/m 6,3 km/h (2 Bft)
23.07.2015 03:14 17,3 C 15,0 C 78 % 0 lf 1015,3 hPa 0,0 l/m 0 min 0 min 0 W/m 4,2 km/h (1 Bft)
23.07.2015 03:16 17,3 C 15,0 C 78 % 0 lf 1015,3 hPa 0,0 l/m 0 min 0 min 0 W/m 6,3 km/h (2 Bft)
23.07.2015 03:18 17,3 C 14,4 C 79 % 0 lf 1015,4 hPa 0,0 l/m 0 min 0 min 0 W/m 6,3 km/h (2 Bft)
23.07.2015 03:20 17,2 C 15,0 C 79 % 0 lf 1015,4 hPa 0,0 l/m 0 min 0 min 0 W/m 6,3 km/h (2 Bft)
23.07.2015 03:22 17,2 C 15,0 C 79 % 0 lf 1015,4 hPa 0,0 l/m 0 min 0 min 0 W/m 2,1 km/h (1 Bft)
23.07.2015 03:24 17,2 C 15,0 C 79 % 0 lf 1015,5 hPa 0,0 l/m 0 min 0 min 0 W/m 6,3 km/h (2 Bft)
23.07.2015 03:26 17,1 C 14,4 C 79 % 0 lf 1015,5 hPa 0,0 l/m 0 min 0 min 0 W/m 4,2 km/h (1 Bft)
23.07.2015 03:28 17,1 C 14,4 C 79 % 0 lf 1015,5 hPa 0,0 l/m 0 min 0 min 0 W/m 4,2 km/h (1 Bft)
23.07.2015 03:30 17,0 C 14,4 C 79 % 0 lf 1015,5 hPa 0,0 l/m 0 min 0 min 0 W/m 4,2 km/h (1 Bft)
23.07.2015 03:32 17,0 C 14,4 C 79 % 0 lf 1015,5 hPa 0,0 l/m 0 min 0 min 0 W/m 6,3 km/h (2 Bft)
23.07.2015 03:34 16,9 C 14,4 C 79 % 0 lf 1015,5 hPa 0,0 l/m 0 min 0 min 0 W/m 6,3 km/h (2 Bft)
23.07.2015 03:36 16,9 C 14,4 C 80 % 0 lf 1015,5 hPa 0,0 l/m 0 min 0 min 0 W/m 4,2 km/h (1 Bft)
23.07.2015 03:38 16,9 C 14,4 C 80 % 0 lf 1015,5 hPa 0,0 l/m 0 min 0 min 0 W/m 4,2 km/h (1 Bft)
23.07.2015 03:40 16,8 C 14,4 C 80 % 0 lf 1015,5 hPa 0,0 l/m 0 min 0 min 0 W/m 6,3 km/h (2 Bft)
23.07.2015 03:42 16,8 C 13,9 C 80 % 0 lf 1015,5 hPa 0,0 l/m 0 min 0 min 0 W/m 6,3 km/h (2 Bft)
23.07.2015 03:44 16,7 C 13,9 C 80 % 0 lf 1015,5 hPa 0,0 l/m 0 min 0 min 0 W/m 4,2 km/h (1 Bft)
23.07.2015 03:46 16,7 C 13,9 C 80 % 0 lf 1015,5 hPa 0,0 l/m 0 min 0 min 0 W/m 6,3 km/h (2 Bft)
23.07.2015 03:48 16,7 C 13,9 C 80 % 0 lf 1015,6 hPa 0,0 l/m 0 min 0 min 0 W/m 6,3 km/h (2 Bft)
23.07.2015 03:50 16,6 C 13,9 C 80 % 0 lf 1015,6 hPa 0,0 l/m 0 min 0 min 0 W/m 6,3 km/h (2 Bft)
23.07.2015 03:52 16,6 C 13,9 C 80 % 0 lf 1015,6 hPa 0,0 l/m 0 min 0 min 0 W/m 6,3 km/h (2 Bft)
23.07.2015 03:54 16,5 C 13,9 C 80 % 0 lf 1015,5 hPa 0,0 l/m 0 min 0 min 0 W/m 6,3 km/h (2 Bft)
23.07.2015 03:56 16,4 C 13,9 C 80 % 0 lf 1015,6 hPa 0,0 l/m 0 min 0 min 0 W/m 4,2 km/h (1 Bft)
23.07.2015 03:58 16,4 C 13,9 C 81 % 0 lf 1015,6 hPa 0,0 l/m 0 min 0 min 0 W/m 6,3 km/h (2 Bft)
23.07.2015 04:00 16,4 C 13,9 C 81 % 0 lf 1015,6 hPa 0,0 l/m 0 min 0 min 0 W/m 8,4 km/h (2 Bft)
23.07.2015 04:02 16,3 C 13,9 C 81 % 0 lf 1015,6 hPa 0,0 l/m 0 min 0 min 0 W/m 6,3 km/h (2 Bft)
23.07.2015 04:04 16,3 C 13,9 C 82 % 0 lf 1015,6 hPa 0,0 l/m 0 min 0 min 0 W/m 8,4 km/h (2 Bft)
23.07.2015 04:06 16,2 C 13,9 C 82 % 0 lf 1015,7 hPa 0,0 l/m 0 min 0 min 0 W/m 8,4 km/h (2 Bft)
23.07.2015 04:08 16,2 C 13,9 C 82 % 0 lf 1015,6 hPa 0,0 l/m 0 min 0 min 0 W/m 6,3 km/h (2 Bft)
23.07.2015 04:10 16,1 C 13,9 C 82 % 0 lf 1015,6 hPa 0,0 l/m 0 min 0 min 0 W/m 6,3 km/h (2 Bft)
23.07.2015 04:12 16,1 C 13,9 C 82 % 0 lf 1015,5 hPa 0,0 l/m 0 min 0 min 0 W/m 10,5 km/h (2 Bft)
23.07.2015 04:14 16,1 C 13,9 C 83 % 0 lf 1015,5 hPa 0,0 l/m 0 min 0 min 0 W/m 10,5 km/h (2 Bft)
23.07.2015 04:16 16,0 C 13,9 C 83 % 0 lf 1015,6 hPa 0,0 l/m 0 min 0 min 0 W/m 12,6 km/h (3 Bft)
23.07.2015 04:18 15,9 C 13,9 C 83 % 0 lf 1015,6 hPa 0,0 l/m 0 min 0 min 0 W/m 10,5 km/h (2 Bft)
23.07.2015 04:20 15,9 C 13,9 C 83 % 0 lf 1015,6 hPa 0,0 l/m 0 min 0 min 0 W/m 8,4 km/h (2 Bft)
23.07.2015 04:22 15,8 C 13,9 C 83 % 0 lf 1015,6 hPa 0,0 l/m 0 min 0 min 0 W/m 8,4 km/h (2 Bft)
23.07.2015 04:24 15,8 C 13,9 C 83 % 0 lf 1015,6 hPa 0,0 l/m 0 min 0 min 0 W/m 8,4 km/h (2 Bft)
23.07.2015 04:26 15,8 C 13,9 C 83 % 0 lf 1015,6 hPa 0,0 l/m 0 min 0 min 0 W/m 16,7 km/h (3 Bft)
23.07.2015 04:28 15,7 C 13,9 C 83 % 0 lf 1015,6 hPa 0,0 l/m 0 min 0 min 0 W/m 14,6 km/h (3 Bft)
23.07.2015 04:30 15,7 C 13,9 C 83 % 0 lf 1015,6 hPa 0,0 l/m 0 min 0 min 0 W/m 10,5 km/h (2 Bft)
23.07.2015 04:32 15,6 C 13,9 C 83 % 0 lf 1015,6 hPa 0,0 l/m 0 min 0 min 0 W/m 12,6 km/h (3 Bft)
23.07.2015 04:34 15,6 C 13,9 C 83 % 0 lf 1015,6 hPa 0,0 l/m 0 min 0 min 0 W/m 14,6 km/h (3 Bft)
23.07.2015 04:36 15,5 C 13,9 C 83 % 0 lf 1015,6 hPa 0,0 l/m 0 min 0 min 0 W/m 10,5 km/h (2 Bft)
23.07.2015 04:38 15,5 C 13,9 C 83 % 0 lf 1015,6 hPa 0,0 l/m 0 min 0 min 0 W/m 10,5 km/h (2 Bft)
23.07.2015 04:40 15,4 C 13,9 C 83 % 0 lf 1015,6 hPa 0,0 l/m 0 min 0 min 0 W/m 10,5 km/h (2 Bft)
23.07.2015 04:42 15,4 C 13,9 C 83 % 0 lf 1015,5 hPa 0,0 l/m 0 min 0 min 0 W/m 12,6 km/h (3 Bft)
23.07.2015 04:44 15,4 C 13,9 C 83 % 0 lf 1015,6 hPa 0,0 l/m 0 min 0 min 0 W/m 14,6 km/h (3 Bft)
23.07.2015 04:46 15,4 C 13,9 C 83 % 0 lf 1015,6 hPa 0,0 l/m 0 min 0 min 0 W/m 12,6 km/h (3 Bft)
23.07.2015 04:48 15,3 C 13,9 C 83 % 0 lf 1015,6 hPa 0,0 l/m 0 min 0 min 0 W/m 8,4 km/h (2 Bft)
23.07.2015 04:50 15,3 C 13,9 C 83 % 0 lf 1015,6 hPa 0,0 l/m 0 min 0 min 0 W/m 10,5 km/h (2 Bft)
23.07.2015 04:52 15,3 C 13,9 C 83 % 0 lf 1015,6 hPa 0,0 l/m 0 min 0 min 0 W/m 12,6 km/h (3 Bft)
23.07.2015 04:54 15,3 C 13,9 C 83 % 0 lf 1015,6 hPa 0,0 l/m 0 min 0 min 0 W/m 10,5 km/h (2 Bft)
23.07.2015 04:56 15,3 C 13,9 C 83 % 0 lf 1015,7 hPa 0,0 l/m 0 min 0 min 0 W/m 10,5 km/h (2 Bft)
23.07.2015 04:58 15,2 C 13,9 C 83 % 0 lf 1015,7 hPa 0,0 l/m 0 min 0 min 0 W/m 12,6 km/h (3 Bft)
23.07.2015 05:00 15,2 C 13,9 C 83 % 0 lf 1015,8 hPa 0,0 l/m 0 min 0 min 0 W/m 12,6 km/h (3 Bft)
23.07.2015 05:02 15,2 C 13,9 C 83 % 0 lf 1015,6 hPa 0,0 l/m 0 min 0 min 0 W/m 12,6 km/h (3 Bft)
23.07.2015 05:04 15,2 C 13,9 C 83 % 0 lf 1015,6 hPa 0,0 l/m 0 min 0 min 0 W/m 12,6 km/h (3 Bft)
23.07.2015 05:06 15,2 C 13,9 C 83 % 0 lf 1015,7 hPa 0,0 l/m 0 min 0 min 0 W/m 8,4 km/h (2 Bft)
23.07.2015 05:08 15,2 C 13,9 C 83 % 0 lf 1015,7 hPa 0,0 l/m 0 min 0 min 0 W/m 10,5 km/h (2 Bft)
23.07.2015 05:10 15,2 C 13,9 C 83 % 0 lf 1015,7 hPa 0,0 l/m 0 min 0 min 0 W/m 10,5 km/h (2 Bft)
23.07.2015 05:12 15,1 C 13,9 C 83 % 0 lf 1015,7 hPa 0,0 l/m 0 min 0 min 0 W/m 10,5 km/h (2 Bft)
23.07.2015 05:14 15,1 C 13,9 C 83 % 0 lf 1015,7 hPa 0,0 l/m 0 min 0 min 0 W/m 10,5 km/h (2 Bft)
23.07.2015 05:16 15,1 C 13,9 C 83 % 0 lf 1015,8 hPa 0,0 l/m 0 min 0 min 0 W/m 10,5 km/h (2 Bft)
23.07.2015 05:18 15,1 C 13,9 C 83 % 0 lf 1015,7 hPa 0,0 l/m 0 min 0 min 0 W/m 12,6 km/h (3 Bft)
23.07.2015 05:20 15,1 C 13,9 C 83 % 0 lf 1015,7 hPa 0,0 l/m 0 min 0 min 0 W/m 10,5 km/h (2 Bft)
23.07.2015 05:22 15,1 C 13,9 C 83 % 0 lf 1015,7 hPa 0,0 l/m 0 min 0 min 0 W/m 12,6 km/h (3 Bft)
23.07.2015 05:24 15,1 C 13,9 C 83 % 0 lf 1015,7 hPa 0,0 l/m 0 min 0 min 0 W/m 10,5 km/h (2 Bft)
23.07.2015 05:26 15,1 C 13,9 C 83 % 0 lf 1015,7 hPa 0,0 l/m 0 min 0 min 0 W/m 8,4 km/h (2 Bft)
23.07.2015 05:28 15,1 C 13,9 C 83 % 0 lf 1015,8 hPa 0,0 l/m 0 min 0 min 0 W/m 10,5 km/h (2 Bft)
23.07.2015 05:30 15,1 C 13,9 C 83 % 0 lf 1015,8 hPa 0,0 l/m 0 min 0 min 0 W/m 10,5 km/h (2 Bft)
23.07.2015 05:32 15,1 C 13,9 C 83 % 0 lf 1015,9 hPa 0,0 l/m 0 min 0 min 0 W/m 10,5 km/h (2 Bft)
23.07.2015 05:34 15,0 C 13,9 C 83 % 0 lf 1015,9 hPa 0,0 l/m 0 min 0 min 0 W/m 8,4 km/h (2 Bft)
23.07.2015 05:36 15,0 C 13,9 C 83 % 0 lf 1015,8 hPa 0,0 l/m 0 min 0 min 2 W/m 8,4 km/h (2 Bft)
23.07.2015 05:38 15,0 C 13,9 C 83 % 0 lf 1015,9 hPa 0,0 l/m 0 min 0 min 5 W/m 10,5 km/h (2 Bft)
23.07.2015 05:40 14,9 C 13,9 C 83 % 0 lf 1015,9 hPa 0,0 l/m 0 min 0 min 5 W/m 10,5 km/h (2 Bft)
23.07.2015 05:42 14,9 C 13,9 C 83 % 0 lf 1015,8 hPa 0,0 l/m 0 min 0 min 6 W/m 10,5 km/h (2 Bft)
23.07.2015 05:44 14,9 C 13,9 C 83 % 0 lf 1015,9 hPa 0,0 l/m 0 min 0 min 7 W/m 10,5 km/h (2 Bft)
23.07.2015 05:46 14,9 C 13,3 C 83 % 0 lf 1015,8 hPa 0,0 l/m 0 min 0 min 7 W/m 10,5 km/h (2 Bft)
23.07.2015 05:48 14,9 C 13,3 C 83 % 0 lf 1015,8 hPa 0,0 l/m 0 min 0 min 8 W/m 12,6 km/h (3 Bft)
23.07.2015 05:50 14,8 C 13,3 C 84 % 0 lf 1015,8 hPa 0,0 l/m 0 min 0 min 9 W/m 12,6 km/h (3 Bft)
23.07.2015 05:52 14,8 C 13,3 C 84 % 0 lf 1015,8 hPa 0,0 l/m 0 min 0 min 9 W/m 8,4 km/h (2 Bft)
23.07.2015 05:54 14,8 C 13,3 C 84 % 0 lf 1015,8 hPa 0,0 l/m 0 min 0 min 11 W/m 12,6 km/h (3 Bft)
23.07.2015 05:56 14,8 C 13,3 C 84 % 0 lf 1015,8 hPa 0,0 l/m 0 min 0 min 11 W/m 12,6 km/h (3 Bft)
23.07.2015 05:58 14,8 C 13,3 C 84 % 0 lf 1015,8 hPa 0,0 l/m 0 min 0 min 12 W/m 8,4 km/h (2 Bft)
23.07.2015 06:00 14,7 C 13,3 C 84 % 0 lf 1015,9 hPa 0,0 l/m 0 min 0 min 12 W/m 10,5 km/h (2 Bft)
23.07.2015 06:02 14,7 C 13,3 C 84 % 0 lf 1015,9 hPa 0,0 l/m 0 min 0 min 14 W/m 10,5 km/h (2 Bft)
23.07.2015 06:05 14,7 C 13,3 C 84 % 0 lf 1015,9 hPa 0,0 l/m 0 min 0 min 18 W/m 12,6 km/h (3 Bft)
23.07.2015 06:10 14,6 C 13,3 C 84 % 0 lf 1016,0 hPa 0,0 l/m 0 min 0 min 18 W/m 12,6 km/h (3 Bft)
23.07.2015 06:12 14,6 C 13,3 C 84 % 0 lf 1015,9 hPa 0,0 l/m 0 min 0 min 22 W/m 8,4 km/h (2 Bft)
23.07.2015 06:14 14,6 C 13,3 C 84 % 0 lf 1015,9 hPa 0,0 l/m 0 min 0 min 24 W/m 8,4 km/h (2 Bft)
23.07.2015 06:16 14,6 C 13,3 C 84 % 0 lf 1016,0 hPa 0,0 l/m 0 min 0 min 27 W/m 8,4 km/h (2 Bft)
23.07.2015 06:18 14,6 C 13,3 C 84 % 0 lf 1016,0 hPa 0,0 l/m 0 min 0 min 29 W/m 10,5 km/h (2 Bft)
23.07.2015 06:20 14,6 C 13,3 C 84 % 0 lf 1016,0 hPa 0,0 l/m 2 min 0 min 32 W/m 8,4 km/h (2 Bft)
23.07.2015 06:22 14,5 C 13,3 C 84 % 0 lf 1015,9 hPa 0,0 l/m 0 min 0 min 34 W/m 8,4 km/h (2 Bft)
23.07.2015 06:24 14,5 C 13,3 C 84 % 0 lf 1015,9 hPa 0,0 l/m 2 min 0 min 38 W/m 10,5 km/h (2 Bft)
23.07.2015 06:26 14,5 C 13,3 C 84 % 0 lf 1016,0 hPa 0,0 l/m 2 min 0 min 41 W/m 6,3 km/h (2 Bft)
23.07.2015 06:28 14,5 C 13,3 C 85 % 0 lf 1016,0 hPa 0,0 l/m 2 min 0 min 45 W/m 6,3 km/h (2 Bft)
23.07.2015 06:30 14,5 C 13,3 C 85 % 0 lf 1016,0 hPa 0,0 l/m 2 min 0 min 48 W/m 8,4 km/h (2 Bft)
23.07.2015 06:32 14,4 C 13,3 C 85 % 0 lf 1016,2 hPa 0,0 l/m 2 min 0 min 52 W/m 10,5 km/h (2 Bft)
23.07.2015 06:34 14,4 C 13,3 C 85 % 0 lf 1016,2 hPa 0,0 l/m 2 min 0 min 56 W/m 6,3 km/h (2 Bft)
23.07.2015 06:36 14,4 C 13,3 C 85 % 0 lf 1016,2 hPa 0,0 l/m 2 min 0 min 61 W/m 8,4 km/h (2 Bft)
23.07.2015 06:38 14,4 C 13,3 C 85 % 0 lf 1016,2 hPa 0,0 l/m 2 min 0 min 64 W/m 8,4 km/h (2 Bft)
23.07.2015 06:40 14,4 C 13,3 C 85 % 0 lf 1016,2 hPa 0,0 l/m 2 min 0 min 69 W/m 6,3 km/h (2 Bft)
23.07.2015 06:42 14,4 C 13,3 C 85 % 0 lf 1016,2 hPa 0,0 l/m 2 min 0 min 73 W/m 8,4 km/h (2 Bft)
23.07.2015 06:44 14,4 C 13,3 C 85 % 0 lf 1016,2 hPa 0,0 l/m 2 min 0 min 78 W/m 6,3 km/h (2 Bft)
23.07.2015 06:46 14,4 C 13,3 C 85 % 0 lf 1016,3 hPa 0,0 l/m 2 min 0 min 83 W/m 6,3 km/h (2 Bft)
23.07.2015 06:48 14,4 C 13,3 C 85 % 0 lf 1016,2 hPa 0,0 l/m 2 min 0 min 89 W/m 8,4 km/h (2 Bft)
23.07.2015 06:50 14,4 C 13,3 C 85 % 0 lf 1016,2 hPa 0,0 l/m 2 min 0 min 94 W/m 8,4 km/h (2 Bft)
23.07.2015 06:52 14,4 C 13,3 C 85 % 0 lf 1016,2 hPa 0,0 l/m 2 min 0 min 97 W/m 6,3 km/h (2 Bft)
23.07.2015 06:54 14,3 C 13,3 C 85 % 0 lf 1016,3 hPa 0,0 l/m 2 min 0 min 101 W/m 4,2 km/h (1 Bft)
23.07.2015 06:56 14,3 C 13,3 C 86 % 0 lf 1016,3 hPa 0,0 l/m 2 min 0 min 107 W/m 8,4 km/h (2 Bft)
23.07.2015 06:58 14,3 C 13,3 C 86 % 0 lf 1016,3 hPa 0,0 l/m 2 min 0 min 114 W/m 6,3 km/h (2 Bft)
23.07.2015 07:00 14,3 C 13,3 C 86 % 0 lf 1016,4 hPa 0,0 l/m 2 min 0 min 119 W/m 10,5 km/h (2 Bft)
23.07.2015 07:02 14,4 C 13,9 C 86 % 0 lf 1016,4 hPa 0,0 l/m 2 min 0 min 125 W/m 6,3 km/h (2 Bft)
23.07.2015 07:04 14,4 C 13,9 C 86 % 0 lf 1016,4 hPa 0,0 l/m 2 min 0 min 127 W/m 8,4 km/h (2 Bft)
23.07.2015 07:06 14,4 C 13,9 C 86 % 0 lf 1016,4 hPa 0,0 l/m 2 min 0 min 132 W/m 10,5 km/h (2 Bft)
23.07.2015 07:08 14,4 C 13,9 C 86 % 0 lf 1016,4 hPa 0,0 l/m 2 min 0 min 132 W/m 8,4 km/h (2 Bft)
23.07.2015 07:10 14,4 C 13,9 C 86 % 0 lf 1016,4 hPa 0,0 l/m 2 min 0 min 142 W/m 10,5 km/h (2 Bft)
23.07.2015 07:12 14,4 C 13,9 C 87 % 0 lf 1016,4 hPa 0,0 l/m 2 min 0 min 146 W/m 8,4 km/h (2 Bft)
23.07.2015 07:14 14,4 C 13,9 C 87 % 0 lf 1016,3 hPa 0,0 l/m 2 min 0 min 154 W/m 8,4 km/h (2 Bft)
23.07.2015 07:16 14,4 C 13,9 C 87 % 0 lf 1016,4 hPa 0,0 l/m 2 min 0 min 161 W/m 6,3 km/h (2 Bft)
23.07.2015 07:18 14,4 C 13,9 C 87 % 0 lf 1016,4 hPa 0,0 l/m 2 min 0 min 167 W/m 10,5 km/h (2 Bft)
23.07.2015 07:20 14,4 C 13,9 C 87 % 0 lf 1016,4 hPa 0,0 l/m 2 min 0 min 161 W/m 8,4 km/h (2 Bft)
23.07.2015 07:22 14,5 C 13,9 C 87 % 0 lf 1016,4 hPa 0,0 l/m 2 min 0 min 177 W/m 10,5 km/h (2 Bft)
23.07.2015 07:24 14,5 C 13,9 C 87 % 0 lf 1016,4 hPa 0,0 l/m 2 min 0 min 183 W/m 12,6 km/h (3 Bft)
23.07.2015 07:26 14,6 C 13,9 C 87 % 0 lf 1016,5 hPa 0,0 l/m 2 min 0 min 189 W/m 10,5 km/h (2 Bft)
23.07.2015 07:28 14,6 C 13,9 C 87 % 0 lf 1016,4 hPa 0,0 l/m 2 min 0 min 194 W/m 8,4 km/h (2 Bft)
23.07.2015 07:30 14,6 C 13,9 C 87 % 0 lf 1016,5 hPa 0,0 l/m 2 min 0 min 201 W/m 8,4 km/h (2 Bft)
23.07.2015 07:32 14,6 C 13,9 C 87 % 0 lf 1016,6 hPa 0,0 l/m 2 min 0 min 207 W/m 8,4 km/h (2 Bft)
23.07.2015 07:34 14,6 C 14,4 C 87 % 0 lf 1016,6 hPa 0,0 l/m 2 min 0 min 212 W/m 10,5 km/h (2 Bft)
23.07.2015 07:36 14,7 C 14,4 C 87 % 0 lf 1016,6 hPa 0,0 l/m 2 min 0 min 217 W/m 8,4 km/h (2 Bft)
23.07.2015 07:38 14,7 C 14,4 C 88 % 0 lf 1016,6 hPa 0,0 l/m 2 min 0 min 224 W/m 6,3 km/h (2 Bft)
23.07.2015 07:40 14,8 C 14,4 C 88 % 0 lf 1016,6 hPa 0,0 l/m 2 min 0 min 229 W/m 10,5 km/h (2 Bft)
23.07.2015 07:42 14,8 C 14,4 C 88 % 0 lf 1016,6 hPa 0,0 l/m 2 min 0 min 239 W/m 6,3 km/h (2 Bft)
23.07.2015 07:44 14,8 C 14,4 C 88 % 0 lf 1016,7 hPa 0,0 l/m 2 min 0 min 251 W/m 14,6 km/h (3 Bft)
23.07.2015 07:46 14,9 C 14,4 C 88 % 0 lf 1016,7 hPa 0,0 l/m 2 min 0 min 262 W/m 12,6 km/h (3 Bft)
23.07.2015 07:48 14,9 C 14,4 C 88 % 0 lf 1016,6 hPa 0,0 l/m 2 min 0 min 278 W/m 14,6 km/h (3 Bft)
23.07.2015 07:50 15,0 C 15,0 C 88 % 0 lf 1016,7 hPa 0,0 l/m 2 min 0 min 303 W/m 16,7 km/h (3 Bft)
23.07.2015 07:52 15,0 C 15,0 C 88 % 0 lf 1016,6 hPa 0,0 l/m 2 min 0 min 253 W/m 12,6 km/h (3 Bft)
23.07.2015 07:54 15,1 C 15,0 C 88 % 0 lf 1016,6 hPa 0,0 l/m 2 min 0 min 160 W/m 8,4 km/h (2 Bft)
23.07.2015 07:56 15,2 C 15,0 C 88 % 0 lf 1016,7 hPa 0,0 l/m 2 min 0 min 234 W/m 12,6 km/h (3 Bft)
23.07.2015 07:58 15,2 C 15,0 C 88 % 0 lf 1016,7 hPa 0,0 l/m 2 min 0 min 330 W/m 12,6 km/h (3 Bft)
23.07.2015 08:00 15,3 C 15,0 C 88 % 0 lf 1016,7 hPa 0,0 l/m 2 min 0 min 323 W/m 8,4 km/h (2 Bft)
23.07.2015 08:02 15,3 C 15,0 C 88 % 0 lf 1016,6 hPa 0,0 l/m 2 min 0 min 353 W/m 14,6 km/h (3 Bft)
23.07.2015 08:04 15,4 C 15,6 C 88 % 0 lf 1016,7 hPa 0,0 l/m 2 min 0 min 321 W/m 14,6 km/h (3 Bft)
23.07.2015 08:06 15,5 C 15,6 C 88 % 0 lf 1016,8 hPa 0,0 l/m 2 min 0 min 306 W/m 12,6 km/h (3 Bft)
23.07.2015 08:08 15,6 C 15,6 C 88 % 0 lf 1016,8 hPa 0,0 l/m 2 min 0 min 327 W/m 14,6 km/h (3 Bft)
23.07.2015 08:10 15,7 C 15,6 C 88 % 0 lf 1016,7 hPa 0,0 l/m 0 min 0 min 159 W/m 8,4 km/h (2 Bft)
23.07.2015 08:12 15,7 C 15,6 C 88 % 0 lf 1016,8 hPa 0,0 l/m 0 min 0 min 146 W/m 14,6 km/h (3 Bft)
23.07.2015 08:14 15,8 C 15,6 C 87 % 0 lf 1016,9 hPa 0,0 l/m 0 min 0 min 148 W/m 16,7 km/h (3 Bft)
23.07.2015 08:16 15,9 C 15,6 C 87 % 0 lf 1016,9 hPa 0,0 l/m 0 min 0 min 147 W/m 12,6 km/h (3 Bft)
23.07.2015 08:18 15,9 C 16,1 C 87 % 0 lf 1017,0 hPa 0,0 l/m 0 min 0 min 143 W/m 10,5 km/h (2 Bft)
23.07.2015 08:20 16,0 C 16,1 C 87 % 0 lf 1016,9 hPa 0,0 l/m 0 min 0 min 139 W/m 12,6 km/h (3 Bft)
23.07.2015 08:22 16,1 C 16,1 C 87 % 0 lf 1017,0 hPa 0,0 l/m 0 min 0 min 137 W/m 10,5 km/h (2 Bft)
23.07.2015 08:24 16,1 C 16,1 C 87 % 0 lf 1017,0 hPa 0,0 l/m 0 min 0 min 143 W/m 10,5 km/h (2 Bft)
23.07.2015 08:26 16,2 C 16,1 C 86 % 0 lf 1017,0 hPa 0,0 l/m 0 min 0 min 150 W/m 14,6 km/h (3 Bft)
23.07.2015 08:28 16,3 C 16,1 C 86 % 0 lf 1016,9 hPa 0,0 l/m 0 min 0 min 158 W/m 14,6 km/h (3 Bft)
23.07.2015 08:30 16,3 C 16,1 C 86 % 0 lf 1017,0 hPa 0,0 l/m 0 min 0 min 165 W/m 12,6 km/h (3 Bft)
23.07.2015 08:32 16,4 C 16,1 C 86 % 0 lf 1017,1 hPa 0,0 l/m 0 min 0 min 175 W/m 10,5 km/h (2 Bft)
23.07.2015 08:34 16,4 C 16,1 C 86 % 0 lf 1017,1 hPa 0,0 l/m 0 min 0 min 187 W/m 10,5 km/h (2 Bft)
23.07.2015 08:36 16,5 C 16,1 C 86 % 0 lf 1017,1 hPa 0,0 l/m 2 min 0 min 201 W/m 10,5 km/h (2 Bft)
23.07.2015 08:38 16,6 C 16,1 C 86 % 0 lf 1017,1 hPa 0,0 l/m 2 min 0 min 202 W/m 10,5 km/h (2 Bft)
23.07.2015 08:40 16,7 C 16,7 C 86 % 0 lf 1017,2 hPa 0,0 l/m 2 min 0 min 206 W/m 16,7 km/h (3 Bft)
23.07.2015 08:42 16,7 C 16,7 C 86 % 0 lf 1017,1 hPa 0,0 l/m 2 min 0 min 215 W/m 8,4 km/h (2 Bft)
23.07.2015 08:44 16,8 C 16,7 C 86 % 0 lf 1017,1 hPa 0,0 l/m 2 min 0 min 230 W/m 6,3 km/h (2 Bft)
23.07.2015 08:46 16,8 C 16,7 C 85 % 0 lf 1017,1 hPa 0,0 l/m 2 min 0 min 251 W/m 8,4 km/h (2 Bft)
23.07.2015 08:48 16,9 C 16,7 C 85 % 0 lf 1017,1 hPa 0,0 l/m 2 min 0 min 268 W/m 6,3 km/h (2 Bft)
23.07.2015 08:50 16,9 C 16,7 C 85 % 0 lf 1017,1 hPa 0,0 l/m 2 min 0 min 269 W/m 10,5 km/h (2 Bft)
23.07.2015 08:52 17,0 C 16,7 C 85 % 0 lf 1017,1 hPa 0,0 l/m 2 min 0 min 313 W/m 10,5 km/h (2 Bft)
23.07.2015 08:54 17,1 C 16,7 C 85 % 0 lf 1017,2 hPa 0,0 l/m 2 min 0 min 422 W/m 8,4 km/h (2 Bft)
23.07.2015 08:56 17,2 C 17,2 C 85 % 0 lf 1017,2 hPa 0,0 l/m 2 min 0 min 298 W/m 8,4 km/h (2 Bft)
23.07.2015 08:58 17,2 C 16,7 C 85 % 0 lf 1017,2 hPa 0,0 l/m 2 min 0 min 280 W/m 10,5 km/h (2 Bft)
23.07.2015 09:00 17,3 C 16,7 C 85 % 0 lf 1017,2 hPa 0,0 l/m 2 min 0 min 254 W/m 10,5 km/h (2 Bft)
23.07.2015 09:02 17,3 C 17,2 C 84 % 0 lf 1017,3 hPa 0,0 l/m 2 min 0 min 272 W/m 6,3 km/h (2 Bft)
23.07.2015 09:04 17,4 C 17,2 C 84 % 0 lf 1017,3 hPa 0,0 l/m 2 min 0 min 263 W/m 10,5 km/h (2 Bft)
23.07.2015 09:06 17,4 C 17,2 C 84 % 0 lf 1017,3 hPa 0,0 l/m 2 min 0 min 287 W/m 10,5 km/h (2 Bft)
23.07.2015 09:08 17,5 C 17,2 C 84 % 0 lf 1017,3 hPa 0,0 l/m 2 min 0 min 295 W/m 10,5 km/h (2 Bft)
23.07.2015 09:10 17,6 C 17,2 C 84 % 0 lf 1017,3 hPa 0,0 l/m 2 min 0 min 293 W/m 12,6 km/h (3 Bft)
23.07.2015 09:12 17,7 C 17,2 C 84 % 0 lf 1017,3 hPa 0,0 l/m 2 min 0 min 294 W/m 16,7 km/h (3 Bft)
23.07.2015 09:14 17,7 C 17,2 C 84 % 0 lf 1017,3 hPa 0,0 l/m 2 min 0 min 295 W/m 12,6 km/h (3 Bft)
23.07.2015 09:16 17,8 C 17,2 C 83 % 0 lf 1017,3 hPa 0,0 l/m 2 min 0 min 300 W/m 10,5 km/h (2 Bft)
23.07.2015 09:18 17,8 C 17,2 C 83 % 0 lf 1017,4 hPa 0,0 l/m 2 min 0 min 323 W/m 4,2 km/h (1 Bft)
23.07.2015 09:20 17,9 C 17,8 C 83 % 0 lf 1017,3 hPa 0,0 l/m 2 min 0 min 308 W/m 10,5 km/h (2 Bft)
23.07.2015 09:22 18,0 C 17,8 C 83 % 0 lf 1017,3 hPa 0,0 l/m 2 min 0 min 299 W/m 8,4 km/h (2 Bft)
23.07.2015 09:24 18,1 C 17,8 C 83 % 0 lf 1017,3 hPa 0,0 l/m 2 min 0 min 310 W/m 12,6 km/h (3 Bft)
23.07.2015 09:26 18,1 C 17,8 C 83 % 0 lf 1017,3 hPa 0,0 l/m 2 min 0 min 373 W/m 8,4 km/h (2 Bft)
23.07.2015 09:28 18,2 C 17,8 C 83 % 0 lf 1017,3 hPa 0,0 l/m 2 min 0 min 309 W/m 10,5 km/h (2 Bft)
23.07.2015 09:30 18,2 C 17,8 C 82 % 0 lf 1017,3 hPa 0,0 l/m 2 min 0 min 300 W/m 8,4 km/h (2 Bft)
23.07.2015 09:32 18,3 C 17,8 C 82 % 0 lf 1017,4 hPa 0,0 l/m 2 min 0 min 319 W/m 6,3 km/h (2 Bft)
23.07.2015 09:34 18,4 C 17,8 C 82 % 0 lf 1017,4 hPa 0,0 l/m 2 min 0 min 309 W/m 8,4 km/h (2 Bft)
23.07.2015 09:36 18,4 C 17,8 C 81 % 0 lf 1017,4 hPa 0,0 l/m 2 min 0 min 323 W/m 10,5 km/h (2 Bft)
23.07.2015 09:38 18,5 C 17,8 C 82 % 0 lf 1017,4 hPa 0,0 l/m 2 min 0 min 343 W/m 8,4 km/h (2 Bft)
23.07.2015 09:40 18,5 C 17,8 C 81 % 0 lf 1017,4 hPa 0,0 l/m 2 min 0 min 313 W/m 8,4 km/h (2 Bft)
23.07.2015 09:42 18,6 C 18,3 C 81 % 0 lf 1017,5 hPa 0,0 l/m 2 min 0 min 306 W/m 6,3 km/h (2 Bft)
23.07.2015 09:44 18,6 C 18,3 C 81 % 0 lf 1017,5 hPa 0,0 l/m 0 min 0 min 252 W/m 6,3 km/h (2 Bft)
23.07.2015 09:46 18,7 C 18,3 C 80 % 0 lf 1017,5 hPa 0,0 l/m 0 min 0 min 260 W/m 6,3 km/h (2 Bft)
23.07.2015 09:48 18,7 C 18,3 C 80 % 0 lf 1017,5 hPa 0,0 l/m 0 min 0 min 257 W/m 8,4 km/h (2 Bft)
23.07.2015 09:50 18,7 C 18,3 C 80 % 0 lf 1017,5 hPa 0,0 l/m 2 min 0 min 294 W/m 6,3 km/h (2 Bft)
23.07.2015 09:52 18,8 C 18,3 C 80 % 0 lf 1017,5 hPa 0,0 l/m 2 min 0 min 316 W/m 8,4 km/h (2 Bft)
23.07.2015 09:54 18,8 C 18,3 C 79 % 0 lf 1017,5 hPa 0,0 l/m 2 min 0 min 391 W/m 8,4 km/h (2 Bft)
23.07.2015 09:56 18,8 C 18,9 C 79 % 0 lf 1017,4 hPa 0,0 l/m 2 min 0 min 475 W/m 10,5 km/h (2 Bft)
23.07.2015 09:58 18,9 C 20,0 C 80 % 0 lf 1017,4 hPa 0,0 l/m 2 min 0 min 435 W/m 8,4 km/h (2 Bft)
23.07.2015 10:00 19,0 C 20,0 C 80 % 0 lf 1017,4 hPa 0,0 l/m 2 min 0 min 496 W/m 8,4 km/h (2 Bft)
23.07.2015 10:02 19,1 C 20,0 C 79 % 0 lf 1017,4 hPa 0,0 l/m 2 min 0 min 332 W/m 10,5 km/h (2 Bft)
23.07.2015 10:04 19,2 C 20,6 C 79 % 0 lf 1017,4 hPa 0,0 l/m 2 min 0 min 325 W/m 12,6 km/h (3 Bft)
23.07.2015 10:06 19,3 C 20,6 C 78 % 0 lf 1017,5 hPa 0,0 l/m 2 min 0 min 426 W/m 10,5 km/h (2 Bft)
23.07.2015 10:08 19,3 C 20,6 C 78 % 0 lf 1017,5 hPa 0,0 l/m 2 min 0 min 405 W/m 10,5 km/h (2 Bft)
23.07.2015 10:10 19,4 C 20,6 C 77 % 0 lf 1017,4 hPa 0,0 l/m 2 min 0 min 406 W/m 10,5 km/h (2 Bft)
23.07.2015 10:12 19,5 C 20,6 C 77 % 0 lf 1017,5 hPa 0,0 l/m 2 min 0 min 325 W/m 10,5 km/h (2 Bft)
23.07.2015 10:14 19,6 C 20,0 C 77 % 0 lf 1017,5 hPa 0,0 l/m 0 min 0 min 297 W/m 14,6 km/h (3 Bft)
23.07.2015 10:16 19,7 C 19,4 C 77 % 0 lf 1017,5 hPa 0,0 l/m 2 min 0 min 326 W/m 10,5 km/h (2 Bft)
23.07.2015 10:18 19,7 C 19,4 C 76 % 0 lf 1017,5 hPa 0,0 l/m 2 min 0 min 360 W/m 12,6 km/h (3 Bft)
23.07.2015 10:20 19,8 C 19,4 C 76 % 0 lf 1017,6 hPa 0,0 l/m 2 min 0 min 372 W/m 16,7 km/h (3 Bft)
23.07.2015 10:22 19,9 C 20,0 C 76 % 0 lf 1017,6 hPa 0,0 l/m 2 min 0 min 369 W/m 12,6 km/h (3 Bft)
23.07.2015 10:24 19,9 C 20,0 C 76 % 0 lf 1017,5 hPa 0,0 l/m 2 min 0 min 348 W/m 12,6 km/h (3 Bft)
23.07.2015 10:26 20,0 C 20,0 C 76 % 0 lf 1017,6 hPa 0,0 l/m 2 min 0 min 356 W/m 8,4 km/h (2 Bft)
23.07.2015 10:28 20,1 C 20,0 C 75 % 0 lf 1017,6 hPa 0,0 l/m 2 min 0 min 405 W/m 8,4 km/h (2 Bft)
23.07.2015 10:30 20,1 C 20,0 C 75 % 0 lf 1017,6 hPa 0,0 l/m 2 min 0 min 391 W/m 12,6 km/h (3 Bft)
23.07.2015 10:32 20,2 C 20,0 C 75 % 0 lf 1017,5 hPa 0,0 l/m 2 min 0 min 351 W/m 12,6 km/h (3 Bft)
23.07.2015 10:34 20,2 C 19,4 C 74 % 0 lf 1017,6 hPa 0,0 l/m 2 min 0 min 328 W/m 14,6 km/h (3 Bft)
23.07.2015 10:36 20,2 C 19,4 C 73 % 0 lf 1017,5 hPa 0,0 l/m 2 min 0 min 353 W/m 18,8 km/h (3 Bft)
23.07.2015 10:38 20,2 C 19,4 C 72 % 0 lf 1017,6 hPa 0,0 l/m 2 min 0 min 361 W/m 12,6 km/h (3 Bft)
23.07.2015 10:40 20,2 C 20,0 C 73 % 0 lf 1017,6 hPa 0,0 l/m 2 min 0 min 392 W/m 14,6 km/h (3 Bft)
23.07.2015 10:42 20,2 C 20,6 C 73 % 0 lf 1017,6 hPa 0,0 l/m 2 min 0 min 437 W/m 12,6 km/h (3 Bft)
23.07.2015 10:44 20,3 C 20,6 C 73 % 0 lf 1017,6 hPa 0,0 l/m 2 min 0 min 496 W/m 16,7 km/h (3 Bft)
23.07.2015 10:46 20,3 C 20,6 C 72 % 0 lf 1017,7 hPa 0,0 l/m 2 min 0 min 467 W/m 12,6 km/h (3 Bft)
23.07.2015 10:48 20,4 C 20,6 C 71 % 0 lf 1017,6 hPa 0,0 l/m 2 min 0 min 414 W/m 12,6 km/h (3 Bft)
23.07.2015 10:50 20,4 C 20,6 C 71 % 0 lf 1017,6 hPa 0,0 l/m 2 min 0 min 423 W/m 10,5 km/h (2 Bft)
23.07.2015 10:52 20,5 C 21,1 C 71 % 0 lf 1017,6 hPa 0,0 l/m 2 min 0 min 457 W/m 16,7 km/h (3 Bft)
23.07.2015 10:54 20,6 C 21,1 C 70 % 0 lf 1017,6 hPa 0,0 l/m 2 min 0 min 458 W/m 14,6 km/h (3 Bft)
23.07.2015 10:56 20,6 C 21,7 C 70 % 0 lf 1017,6 hPa 0,0 l/m 2 min 0 min 461 W/m 18,8 km/h (3 Bft)
23.07.2015 10:58 20,7 C 21,7 C 70 % 0 lf 1017,6 hPa 0,0 l/m 2 min 0 min 530 W/m 14,6 km/h (3 Bft)
23.07.2015 11:00 20,8 C 21,1 C 70 % 0 lf 1017,6 hPa 0,0 l/m 2 min 0 min 545 W/m 14,6 km/h (3 Bft)
23.07.2015 11:02 20,9 C 21,1 C 69 % 0 lf 1017,7 hPa 0,0 l/m 2 min 0 min 512 W/m 14,6 km/h (3 Bft)
23.07.2015 11:04 20,9 C 21,1 C 68 % 0 lf 1017,7 hPa 0,0 l/m 2 min 0 min 480 W/m 12,6 km/h (3 Bft)
23.07.2015 11:06 21,0 C 20,6 C 68 % 0 lf 1017,7 hPa 0,0 l/m 2 min 0 min 414 W/m 8,4 km/h (2 Bft)
23.07.2015 11:08 21,0 C 20,6 C 68 % 0 lf 1017,7 hPa 0,0 l/m 2 min 0 min 493 W/m 14,6 km/h (3 Bft)
23.07.2015 11:10 21,0 C 20,6 C 68 % 0 lf 1017,7 hPa 0,0 l/m 2 min 0 min 489 W/m 12,6 km/h (3 Bft)
23.07.2015 11:12 21,1 C 20,6 C 69 % 0 lf 1017,7 hPa 0,0 l/m 2 min 0 min 378 W/m 12,6 km/h (3 Bft)
23.07.2015 11:14 21,1 C 20,6 C 69 % 0 lf 1017,7 hPa 0,0 l/m 2 min 0 min 447 W/m 10,5 km/h (2 Bft)
23.07.2015 11:16 21,1 C 20,6 C 68 % 0 lf 1017,7 hPa 0,0 l/m 2 min 0 min 510 W/m 12,6 km/h (3 Bft)
23.07.2015 11:17 21,2 C 20,0 C 68 % 0 lf 1017,8 hPa 0,0 l/m 0 min 0 min 329 W/m 12,6 km/h (3 Bft)
23.07.2015 11:20 21,2 C 20,6 C 68 % 0 lf 1017,7 hPa 0,0 l/m 2 min 0 min 400 W/m 10,5 km/h (2 Bft)
23.07.2015 11:22 21,2 C 20,6 C 68 % 0 lf 1017,7 hPa 0,0 l/m 2 min 0 min 403 W/m 12,6 km/h (3 Bft)
23.07.2015 11:24 21,2 C 21,1 C 68 % 0 lf 1017,6 hPa 0,0 l/m 2 min 0 min 668 W/m 10,5 km/h (2 Bft)
23.07.2015 11:26 21,2 C 21,1 C 68 % 0 lf 1017,7 hPa 0,0 l/m 2 min 0 min 897 W/m 12,6 km/h (3 Bft)
23.07.2015 11:28 21,3 C 21,7 C 68 % 0 lf 1017,7 hPa 0,0 l/m 2 min 0 min 919 W/m 10,5 km/h (2 Bft)
23.07.2015 11:30 21,4 C 22,8 C 69 % 0 lf 1017,7 hPa 0,0 l/m 2 min 0 min 950 W/m 10,5 km/h (2 Bft)
23.07.2015 11:32 21,7 C 22,8 C 69 % 0 lf 1017,6 hPa 0,0 l/m 2 min 0 min 965 W/m 10,5 km/h (2 Bft)
23.07.2015 11:34 21,8 C 22,2 C 67 % 0 lf 1017,5 hPa 0,0 l/m 2 min 0 min 981 W/m 8,4 km/h (2 Bft)
23.07.2015 11:36 22,1 C 23,3 C 68 % 0 lf 1017,5 hPa 0,0 l/m 2 min 0 min 1036 W/m 14,6 km/h (3 Bft)
23.07.2015 11:38 22,2 C 22,8 C 67 % 0 lf 1017,5 hPa 0,0 l/m 2 min 0 min 898 W/m 16,7 km/h (3 Bft)
23.07.2015 11:40 22,3 C 22,2 C 65 % 0 lf 1017,5 hPa 0,0 l/m 2 min 0 min 438 W/m 10,5 km/h (2 Bft)
23.07.2015 11:42 22,4 C 23,9 C 66 % 0 lf 1017,5 hPa 0,0 l/m 2 min 0 min 443 W/m 10,5 km/h (2 Bft)
23.07.2015 11:44 22,6 C 23,9 C 65 % 0 lf 1017,5 hPa 0,0 l/m 2 min 0 min 646 W/m 18,8 km/h (3 Bft)
23.07.2015 11:46 22,6 C 22,8 C 62 % 0 lf 1017,6 hPa 0,0 l/m 2 min 0 min 568 W/m 18,8 km/h (3 Bft)
23.07.2015 11:48 22,6 C 21,7 C 62 % 0 lf 1017,6 hPa 0,0 l/m 0 min 0 min 375 W/m 12,6 km/h (3 Bft)
23.07.2015 11:50 22,5 C 22,2 C 63 % 0 lf 1017,6 hPa 0,0 l/m 0 min 0 min 380 W/m 12,6 km/h (3 Bft)
23.07.2015 11:52 22,5 C 22,2 C 62 % 0 lf 1017,6 hPa 0,0 l/m 2 min 0 min 475 W/m 23,0 km/h (4 Bft)
23.07.2015 11:54 22,4 C 22,2 C 62 % 0 lf 1017,5 hPa 0,0 l/m 2 min 0 min 455 W/m 14,6 km/h (3 Bft)
23.07.2015 11:56 22,4 C 23,3 C 63 % 0 lf 1017,5 hPa 0,0 l/m 2 min 0 min 434 W/m 6,3 km/h (2 Bft)
23.07.2015 11:58 22,4 C 22,8 C 62 % 0 lf 1017,5 hPa 0,0 l/m 2 min 0 min 434 W/m 20,9 km/h (4 Bft)
23.07.2015 12:00 22,5 C 23,3 C 62 % 0 lf 1017,5 hPa 0,0 l/m 2 min 0 min 494 W/m 14,6 km/h (3 Bft)
23.07.2015 12:02 22,6 C 22,8 C 62 % 0 lf 1017,6 hPa 0,0 l/m 2 min 0 min 497 W/m 12,6 km/h (3 Bft)
23.07.2015 12:05 22,6 C 22,8 C 61 % 0 lf 1017,6 hPa 0,0 l/m 2 min 0 min 499 W/m 12,6 km/h (3 Bft)
23.07.2015 12:10 22,6 C 21,7 C 62 % 0 lf 1017,6 hPa 0,0 l/m 2 min 0 min 425 W/m 14,6 km/h (3 Bft)
23.07.2015 12:12 22,6 C 21,7 C 62 % 0 lf 1017,5 hPa 0,0 l/m 0 min 0 min 356 W/m 10,5 km/h (2 Bft)
23.07.2015 12:14 22,6 C 22,8 C 62 % 0 lf 1017,5 hPa 0,0 l/m 2 min 0 min 401 W/m 10,5 km/h (2 Bft)
23.07.2015 12:16 22,6 C 23,3 C 63 % 0 lf 1017,5 hPa 0,0 l/m 2 min 0 min 883 W/m 14,6 km/h (3 Bft)
23.07.2015 12:18 22,6 C 22,8 C 61 % 0 lf 1017,4 hPa 0,0 l/m 0 min 0 min 310 W/m 8,4 km/h (2 Bft)
23.07.2015 12:20 22,6 C 24,4 C 62 % 0 lf 1017,4 hPa 0,0 l/m 2 min 0 min 454 W/m 14,6 km/h (3 Bft)
23.07.2015 12:22 22,7 C 25,0 C 61 % 0 lf 1017,4 hPa 0,0 l/m 2 min 0 min 685 W/m 33,5 km/h (5 Bft)
23.07.2015 12:24 22,9 C 26,1 C 62 % 0 lf 1017,4 hPa 0,0 l/m 2 min 0 min 411 W/m 16,7 km/h (3 Bft)
23.07.2015 12:26 23,1 C 25,6 C 60 % 0 lf 1017,4 hPa 0,0 l/m 2 min 0 min 463 W/m 16,7 km/h (3 Bft)
23.07.2015 12:28 23,2 C 26,1 C 62 % 0 lf 1017,4 hPa 0,0 l/m 2 min 0 min 557 W/m 20,9 km/h (4 Bft)
23.07.2015 12:30 23,2 C 24,4 C 59 % 0 lf 1017,4 hPa 0,0 l/m 2 min 0 min 495 W/m 16,7 km/h (3 Bft)
23.07.2015 12:32 23,2 C 23,9 C 59 % 0 lf 1017,3 hPa 0,0 l/m 0 min 0 min 245 W/m 14,6 km/h (3 Bft)
23.07.2015 12:34 23,3 C 25,0 C 61 % 0 lf 1017,3 hPa 0,0 l/m 2 min 0 min 573 W/m 23,0 km/h (4 Bft)
23.07.2015 12:36 23,3 C 23,3 C 59 % 0 lf 1017,3 hPa 0,0 l/m 2 min 0 min 537 W/m 20,9 km/h (4 Bft)
23.07.2015 12:38 23,3 C 22,8 C 58 % 0 lf 1017,3 hPa 0,0 l/m 0 min 0 min 306 W/m 10,5 km/h (2 Bft)
23.07.2015 12:40 23,3 C 22,2 C 58 % 0 lf 1017,2 hPa 0,0 l/m 0 min 0 min 334 W/m 14,6 km/h (3 Bft)
23.07.2015 12:42 23,2 C 21,7 C 59 % 0 lf 1017,3 hPa 0,0 l/m 0 min 0 min 305 W/m 14,6 km/h (3 Bft)
23.07.2015 12:44 23,2 C 21,1 C 58 % 0 lf 1017,2 hPa 0,0 l/m 0 min 0 min 277 W/m 8,4 km/h (2 Bft)
23.07.2015 12:46 23,2 C 21,7 C 59 % 0 lf 1017,2 hPa 0,0 l/m 0 min 0 min 308 W/m 12,6 km/h (3 Bft)
23.07.2015 12:48 23,1 C 21,7 C 59 % 0 lf 1017,1 hPa 0,0 l/m 0 min 0 min 289 W/m 12,6 km/h (3 Bft)
23.07.2015 12:50 23,1 C 21,1 C 60 % 0 lf 1017,2 hPa 0,0 l/m 0 min 0 min 210 W/m 10,5 km/h (2 Bft)
23.07.2015 12:52 23,0 C 21,7 C 61 % 0 lf 1017,1 hPa 0,0 l/m 0 min 0 min 293 W/m 10,5 km/h (2 Bft)
23.07.2015 12:54 23,1 C 22,2 C 62 % 0 lf 1017,1 hPa 0,0 l/m 2 min 0 min 971 W/m 14,6 km/h (3 Bft)
23.07.2015 12:56 23,1 C 22,2 C 60 % 0 lf 1017,1 hPa 0,0 l/m 2 min 0 min 609 W/m 12,6 km/h (3 Bft)
23.07.2015 12:58 23,2 C 22,8 C 60 % 0 lf 1017,2 hPa 0,0 l/m 2 min 0 min 533 W/m 12,6 km/h (3 Bft)
23.07.2015 13:00 23,2 C 21,7 C 57 % 0 lf 1017,1 hPa 0,0 l/m 0 min 0 min 405 W/m 10,5 km/h (2 Bft)
23.07.2015 13:02 23,2 C 21,7 C 58 % 0 lf 1017,2 hPa 0,0 l/m 0 min 0 min 336 W/m 18,8 km/h (3 Bft)
23.07.2015 13:04 23,1 C 21,7 C 59 % 0 lf 1017,2 hPa 0,0 l/m 0 min 0 min 359 W/m 16,7 km/h (3 Bft)
23.07.2015 13:06 23,1 C 22,2 C 58 % 0 lf 1017,1 hPa 0,0 l/m 0 min 0 min 360 W/m 18,8 km/h (3 Bft)
23.07.2015 13:08 23,1 C 22,2 C 59 % 0 lf 1017,1 hPa 0,0 l/m 0 min 0 min 332 W/m 16,7 km/h (3 Bft)
23.07.2015 13:10 23,1 C 21,7 C 59 % 0 lf 1017,1 hPa 0,0 l/m 0 min 0 min 276 W/m 12,6 km/h (3 Bft)
23.07.2015 13:12 23,0 C 21,1 C 58 % 0 lf 1017,1 hPa 0,0 l/m 0 min 0 min 246 W/m 14,6 km/h (3 Bft)
23.07.2015 13:14 22,9 C 21,1 C 59 % 0 lf 1017,1 hPa 0,0 l/m 0 min 0 min 231 W/m 16,7 km/h (3 Bft)
23.07.2015 13:16 22,8 C 20,6 C 58 % 0 lf 1017,1 hPa 0,0 l/m 0 min 0 min 224 W/m 14,6 km/h (3 Bft)
23.07.2015 13:18 22,7 C 20,6 C 59 % 0 lf 1017,2 hPa 0,0 l/m 0 min 0 min 231 W/m 16,7 km/h (3 Bft)
23.07.2015 13:20 22,6 C 20,6 C 59 % 0 lf 1017,1 hPa 0,0 l/m 0 min 0 min 245 W/m 16,7 km/h (3 Bft)
23.07.2015 13:22 22,5 C 20,6 C 60 % 0 lf 1017,1 hPa 0,0 l/m 0 min 0 min 265 W/m 16,7 km/h (3 Bft)
23.07.2015 13:24 22,4 C 20,6 C 59 % 0 lf 1017,0 hPa 0,0 l/m 0 min 0 min 283 W/m 16,7 km/h (3 Bft)
23.07.2015 13:26 22,4 C 21,1 C 60 % 0 lf 1017,0 hPa 0,0 l/m 0 min 0 min 321 W/m 14,6 km/h (3 Bft)
23.07.2015 13:28 22,3 C 21,1 C 60 % 0 lf 1017,0 hPa 0,0 l/m 0 min 0 min 380 W/m 12,6 km/h (3 Bft)
23.07.2015 13:30 22,3 C 21,7 C 61 % 0 lf 1017,1 hPa 0,0 l/m 2 min 0 min 623 W/m 16,7 km/h (3 Bft)
23.07.2015 13:32 22,4 C 22,8 C 62 % 0 lf 1017,0 hPa 0,0 l/m 2 min 0 min 1007 W/m 16,7 km/h (3 Bft)
23.07.2015 13:34 22,6 C 22,8 C 62 % 0 lf 1017,1 hPa 0,0 l/m 2 min 0 min 1023 W/m 10,5 km/h (2 Bft)
23.07.2015 13:36 22,7 C 22,8 C 59 % 0 lf 1017,1 hPa 0,0 l/m 2 min 0 min 1023 W/m 16,7 km/h (3 Bft)
23.07.2015 13:38 22,8 C 22,8 C 59 % 0 lf 1017,1 hPa 0,0 l/m 2 min 0 min 440 W/m 14,6 km/h (3 Bft)
23.07.2015 13:40 22,9 C 22,8 C 60 % 0 lf 1017,1 hPa 0,0 l/m 2 min 0 min 443 W/m 14,6 km/h (3 Bft)
23.07.2015 13:42 22,9 C 22,2 C 57 % 0 lf 1017,1 hPa 0,0 l/m 2 min 0 min 745 W/m 18,8 km/h (3 Bft)
23.07.2015 13:44 22,9 C 22,2 C 56 % 0 lf 1017,1 hPa 0,0 l/m 0 min 0 min 337 W/m 14,6 km/h (3 Bft)
23.07.2015 13:46 23,0 C 22,2 C 58 % 0 lf 1017,0 hPa 0,0 l/m 0 min 0 min 299 W/m 14,6 km/h (3 Bft)
23.07.2015 13:48 23,0 C 21,7 C 58 % 0 lf 1017,1 hPa 0,0 l/m 0 min 0 min 310 W/m 12,6 km/h (3 Bft)
23.07.2015 13:50 23,0 C 21,7 C 58 % 0 lf 1017,2 hPa 0,0 l/m 0 min 0 min 311 W/m 8,4 km/h (2 Bft)
23.07.2015 13:52 23,0 C 22,2 C 59 % 0 lf 1017,1 hPa 0,0 l/m 0 min 0 min 351 W/m 8,4 km/h (2 Bft)
23.07.2015 13:54 23,0 C 22,2 C 58 % 0 lf 1017,1 hPa 0,0 l/m 0 min 0 min 407 W/m 8,4 km/h (2 Bft)
23.07.2015 13:56 23,1 C 22,2 C 59 % 0 lf 1017,1 hPa 0,0 l/m 2 min 0 min 825 W/m 8,4 km/h (2 Bft)
23.07.2015 13:58 23,1 C 22,2 C 57 % 0 lf 1017,1 hPa 0,0 l/m 2 min 0 min 776 W/m 10,5 km/h (2 Bft)
23.07.2015 14:00 23,1 C 22,2 C 57 % 0 lf 1017,1 hPa 0,0 l/m 2 min 0 min 674 W/m 4,2 km/h (1 Bft)
23.07.2015 14:02 23,2 C 22,2 C 56 % 0 lf 1017,1 hPa 0,0 l/m 2 min 0 min 667 W/m 6,3 km/h (2 Bft)
23.07.2015 14:04 23,2 C 22,2 C 57 % 0 lf 1017,1 hPa 0,0 l/m 2 min 0 min 663 W/m 8,4 km/h (2 Bft)
23.07.2015 14:06 23,3 C 22,2 C 59 % 0 lf 1017,1 hPa 0,0 l/m 2 min 0 min 663 W/m 8,4 km/h (2 Bft)
23.07.2015 14:08 23,3 C 21,7 C 58 % 0 lf 1017,1 hPa 0,0 l/m 0 min 0 min 328 W/m 23,0 km/h (4 Bft)
23.07.2015 14:10 23,2 C 21,1 C 57 % 0 lf 1017,1 hPa 0,0 l/m 0 min 0 min 219 W/m 41,8 km/h (6 Bft)
23.07.2015 14:12 23,2 C 21,1 C 57 % 0 lf 1017,1 hPa 0,0 l/m 0 min 0 min 120 W/m 10,5 km/h (2 Bft)
23.07.2015 14:14 23,1 C 20,6 C 57 % 0 lf 1017,1 hPa 0,0 l/m 0 min 0 min 101 W/m 20,9 km/h (4 Bft)
23.07.2015 14:16 22,9 C 20,0 C 57 % 0 lf 1017,1 hPa 0,0 l/m 0 min 0 min 92 W/m 16,7 km/h (3 Bft)
23.07.2015 14:18 22,8 C 20,0 C 58 % 0 lf 1017,1 hPa 0,0 l/m 0 min 0 min 87 W/m 10,5 km/h (2 Bft)
23.07.2015 14:20 22,7 C 20,0 C 58 % 0 lf 1017,1 hPa 0,0 l/m 0 min 0 min 96 W/m 8,4 km/h (2 Bft)
23.07.2015 14:22 22,6 C 20,0 C 58 % 0 lf 1017,1 hPa 0,0 l/m 0 min 0 min 111 W/m 12,6 km/h (3 Bft)
23.07.2015 14:24 22,5 C 20,0 C 60 % 0 lf 1017,1 hPa 0,0 l/m 0 min 0 min 120 W/m 8,4 km/h (2 Bft)
23.07.2015 14:26 22,4 C 20,0 C 60 % 0 lf 1017,1 hPa 0,0 l/m 0 min 0 min 138 W/m 8,4 km/h (2 Bft)
23.07.2015 14:28 22,3 C 20,0 C 60 % 0 lf 1017,1 hPa 0,0 l/m 0 min 0 min 157 W/m 14,6 km/h (3 Bft)
23.07.2015 14:30 22,3 C 20,6 C 61 % 0 lf 1017,1 hPa 0,0 l/m 0 min 0 min 168 W/m 8,4 km/h (2 Bft)
23.07.2015 14:32 22,2 C 20,6 C 61 % 0 lf 1017,1 hPa 0,0 l/m 0 min 0 min 173 W/m 8,4 km/h (2 Bft)
23.07.2015 14:34 22,1 C 20,6 C 61 % 0 lf 1017,1 hPa 0,0 l/m 0 min 0 min 175 W/m 16,7 km/h (3 Bft)
23.07.2015 14:36 22,1 C 20,6 C 61 % 0 lf 1017,1 hPa 0,0 l/m 0 min 0 min 176 W/m 10,5 km/h (2 Bft)
23.07.2015 14:38 22,0 C 20,6 C 61 % 0 lf 1017,1 hPa 0,0 l/m 0 min 0 min 179 W/m 8,4 km/h (2 Bft)
23.07.2015 14:40 21,9 C 20,6 C 62 % 0 lf 1017,1 hPa 0,0 l/m 0 min 0 min 186 W/m 10,5 km/h (2 Bft)
23.07.2015 14:42 21,9 C 20,6 C 62 % 0 lf 1017,1 hPa 0,0 l/m 0 min 0 min 198 W/m 12,6 km/h (3 Bft)
23.07.2015 14:44 21,9 C 20,6 C 61 % 0 lf 1017,1 hPa 0,0 l/m 0 min 0 min 210 W/m 14,6 km/h (3 Bft)
23.07.2015 14:46 21,8 C 20,6 C 62 % 0 lf 1017,1 hPa 0,0 l/m 0 min 0 min 224 W/m 14,6 km/h (3 Bft)
23.07.2015 14:48 21,8 C 21,1 C 61 % 0 lf 1017,1 hPa 0,0 l/m 0 min 0 min 238 W/m 12,6 km/h (3 Bft)
23.07.2015 14:50 21,8 C 21,1 C 61 % 0 lf 1017,1 hPa 0,0 l/m 0 min 0 min 245 W/m 14,6 km/h (3 Bft)
23.07.2015 14:52 21,8 C 21,1 C 60 % 0 lf 1017,1 hPa 0,0 l/m 0 min 0 min 239 W/m 12,6 km/h (3 Bft)
23.07.2015 14:54 21,8 C 21,1 C 61 % 0 lf 1017,1 hPa 0,0 l/m 0 min 0 min 227 W/m 12,6 km/h (3 Bft)
23.07.2015 14:56 21,8 C 21,1 C 61 % 0 lf 1017,1 hPa 0,0 l/m 0 min 0 min 217 W/m 6,3 km/h (2 Bft)
23.07.2015 14:58 21,8 C 21,1 C 61 % 0 lf 1017,1 hPa 0,0 l/m 0 min 0 min 216 W/m 8,4 km/h (2 Bft)
23.07.2015 15:00 21,8 C 21,1 C 61 % 0 lf 1017,0 hPa 0,0 l/m 0 min 0 min 219 W/m 20,9 km/h (4 Bft)
23.07.2015 15:02 21,8 C 21,1 C 61 % 0 lf 1017,1 hPa 0,0 l/m 0 min 0 min 244 W/m 12,6 km/h (3 Bft)
23.07.2015 15:04 21,8 C 21,1 C 60 % 0 lf 1017,1 hPa 0,0 l/m 0 min 0 min 265 W/m 8,4 km/h (2 Bft)
23.07.2015 15:06 21,8 C 21,1 C 60 % 0 lf 1017,0 hPa 0,0 l/m 0 min 0 min 258 W/m 12,6 km/h (3 Bft)
23.07.2015 15:08 21,8 C 21,1 C 60 % 0 lf 1017,0 hPa 0,0 l/m 0 min 0 min 252 W/m 8,4 km/h (2 Bft)
23.07.2015 15:10 21,8 C 21,1 C 60 % 0 lf 1017,0 hPa 0,0 l/m 0 min 0 min 253 W/m 14,6 km/h (3 Bft)
23.07.2015 15:12 21,8 C 21,1 C 59 % 0 lf 1017,0 hPa 0,0 l/m 0 min 0 min 253 W/m 10,5 km/h (2 Bft)
23.07.2015 15:14 21,8 C 21,1 C 60 % 0 lf 1017,1 hPa 0,0 l/m 0 min 0 min 261 W/m 8,4 km/h (2 Bft)
23.07.2015 15:16 21,9 C 21,1 C 60 % 0 lf 1016,9 hPa 0,0 l/m 0 min 0 min 290 W/m 10,5 km/h (2 Bft)
23.07.2015 15:18 21,9 C 21,1 C 61 % 0 lf 1017,0 hPa 0,0 l/m 0 min 0 min 327 W/m 8,4 km/h (2 Bft)
23.07.2015 15:20 21,9 C 21,7 C 61 % 0 lf 1017,0 hPa 0,0 l/m 2 min 0 min 398 W/m 6,3 km/h (2 Bft)
23.07.2015 15:22 22,0 C 22,2 C 61 % 0 lf 1016,9 hPa 0,0 l/m 2 min 0 min 453 W/m 10,5 km/h (2 Bft)
23.07.2015 15:24 22,1 C 22,2 C 61 % 0 lf 1016,8 hPa 0,0 l/m 2 min 0 min 437 W/m 10,5 km/h (2 Bft)
23.07.2015 15:26 22,1 C 22,2 C 61 % 0 lf 1016,8 hPa 0,0 l/m 2 min 0 min 432 W/m 14,6 km/h (3 Bft)
23.07.2015 15:28 22,2 C 22,2 C 59 % 0 lf 1016,8 hPa 0,0 l/m 2 min 0 min 451 W/m 12,6 km/h (3 Bft)
23.07.2015 15:30 22,2 C 22,2 C 60 % 0 lf 1016,7 hPa 0,0 l/m 2 min 0 min 446 W/m 14,6 km/h (3 Bft)
23.07.2015 15:32 22,3 C 22,8 C 60 % 0 lf 1016,7 hPa 0,0 l/m 2 min 0 min 399 W/m 8,4 km/h (2 Bft)
23.07.2015 15:34 22,4 C 22,2 C 60 % 0 lf 1016,6 hPa 0,0 l/m 0 min 0 min 342 W/m 12,6 km/h (3 Bft)
23.07.2015 15:36 22,5 C 22,2 C 60 % 0 lf 1016,7 hPa 0,0 l/m 0 min 0 min 334 W/m 12,6 km/h (3 Bft)
23.07.2015 15:38 22,6 C 22,2 C 60 % 0 lf 1016,6 hPa 0,0 l/m 0 min 0 min 316 W/m 12,6 km/h (3 Bft)
23.07.2015 15:40 22,6 C 22,2 C 59 % 0 lf 1016,7 hPa 0,0 l/m 0 min 0 min 282 W/m 12,6 km/h (3 Bft)
23.07.2015 15:42 22,6 C 21,7 C 59 % 0 lf 1016,6 hPa 0,0 l/m 0 min 0 min 249 W/m 10,5 km/h (2 Bft)
23.07.2015 15:44 22,6 C 21,7 C 58 % 0 lf 1016,6 hPa 0,0 l/m 0 min 0 min 245 W/m 8,4 km/h (2 Bft)
23.07.2015 15:46 22,7 C 21,7 C 58 % 0 lf 1016,5 hPa 0,0 l/m 0 min 0 min 255 W/m 10,5 km/h (2 Bft)
23.07.2015 15:48 22,6 C 21,7 C 58 % 0 lf 1016,5 hPa 0,0 l/m 0 min 0 min 261 W/m 10,5 km/h (2 Bft)
23.07.2015 15:50 22,7 C 21,7 C 59 % 0 lf 1016,5 hPa 0,0 l/m 0 min 0 min 258 W/m 10,5 km/h (2 Bft)
23.07.2015 15:52 22,7 C 21,7 C 59 % 0 lf 1016,5 hPa 0,0 l/m 0 min 0 min 261 W/m 6,3 km/h (2 Bft)
23.07.2015 15:54 22,7 C 21,7 C 60 % 0 lf 1016,6 hPa 0,0 l/m 0 min 0 min 276 W/m 8,4 km/h (2 Bft)
23.07.2015 15:56 22,7 C 21,7 C 61 % 0 lf 1016,6 hPa 0,0 l/m 0 min 0 min 323 W/m 6,3 km/h (2 Bft)
23.07.2015 15:58 22,7 C 21,7 C 59 % 0 lf 1016,6 hPa 0,0 l/m 0 min 0 min 360 W/m 8,4 km/h (2 Bft)
23.07.2015 16:00 22,7 C 22,2 C 60 % 0 lf 1016,5 hPa 0,0 l/m 2 min 0 min 408 W/m 8,4 km/h (2 Bft)
23.07.2015 16:02 22,8 C 22,2 C 59 % 0 lf 1016,5 hPa 0,0 l/m 2 min 0 min 501 W/m 12,6 km/h (3 Bft)
23.07.2015 16:04 22,8 C 22,8 C 57 % 0 lf 1016,5 hPa 0,0 l/m 2 min 0 min 661 W/m 6,3 km/h (2 Bft)
23.07.2015 16:06 22,9 C 23,3 C 60 % 0 lf 1016,4 hPa 0,0 l/m 2 min 0 min 817 W/m 10,5 km/h (2 Bft)
23.07.2015 16:08 23,1 C 23,3 C 57 % 0 lf 1016,4 hPa 0,0 l/m 2 min 0 min 935 W/m 4,2 km/h (1 Bft)
23.07.2015 16:10 23,2 C 23,3 C 56 % 0 lf 1016,3 hPa 0,0 l/m 2 min 0 min 894 W/m 12,6 km/h (3 Bft)
23.07.2015 16:12 23,3 C 23,3 C 56 % 0 lf 1016,2 hPa 0,0 l/m 2 min 0 min 851 W/m 12,6 km/h (3 Bft)
23.07.2015 16:14 23,3 C 22,8 C 57 % 0 lf 1016,3 hPa 0,0 l/m 2 min 0 min 442 W/m 8,4 km/h (2 Bft)
23.07.2015 16:16 23,4 C 22,8 C 57 % 0 lf 1016,3 hPa 0,0 l/m 0 min 0 min 284 W/m 10,5 km/h (2 Bft)
23.07.2015 16:18 23,5 C 22,2 C 57 % 0 lf 1016,3 hPa 0,0 l/m 0 min 0 min 267 W/m 14,6 km/h (3 Bft)
23.07.2015 16:20 23,6 C 22,2 C 57 % 0 lf 1016,3 hPa 0,0 l/m 0 min 0 min 314 W/m 12,6 km/h (3 Bft)
23.07.2015 16:22 23,6 C 22,2 C 56 % 0 lf 1016,3 hPa 0,0 l/m 0 min 0 min 298 W/m 18,8 km/h (3 Bft)
23.07.2015 16:24 23,6 C 22,2 C 56 % 0 lf 1016,3 hPa 0,0 l/m 0 min 0 min 307 W/m 8,4 km/h (2 Bft)
23.07.2015 16:26 23,6 C 22,2 C 56 % 0 lf 1016,3 hPa 0,0 l/m 0 min 0 min 318 W/m 14,6 km/h (3 Bft)
23.07.2015 16:28 23,6 C 22,2 C 57 % 0 lf 1016,3 hPa 0,0 l/m 0 min 0 min 332 W/m 14,6 km/h (3 Bft)
23.07.2015 16:30 23,5 C 22,2 C 57 % 0 lf 1016,3 hPa 0,0 l/m 0 min 0 min 320 W/m 16,7 km/h (3 Bft)
23.07.2015 16:32 23,5 C 22,2 C 57 % 0 lf 1016,2 hPa 0,0 l/m 0 min 0 min 301 W/m 14,6 km/h (3 Bft)
23.07.2015 16:34 23,4 C 22,2 C 57 % 0 lf 1016,3 hPa 0,0 l/m 2 min 0 min 399 W/m 10,5 km/h (2 Bft)
23.07.2015 16:36 23,4 C 22,2 C 56 % 0 lf 1016,3 hPa 0,0 l/m 2 min 0 min 388 W/m 10,5 km/h (2 Bft)
23.07.2015 16:38 23,4 C 22,8 C 57 % 0 lf 1016,3 hPa 0,0 l/m 2 min 0 min 378 W/m 8,4 km/h (2 Bft)
23.07.2015 16:40 23,5 C 22,8 C 57 % 0 lf 1016,3 hPa 0,0 l/m 2 min 0 min 391 W/m 10,5 km/h (2 Bft)
23.07.2015 16:42 23,5 C 22,8 C 59 % 0 lf 1016,3 hPa 0,0 l/m 2 min 0 min 349 W/m 12,6 km/h (3 Bft)
23.07.2015 16:44 23,5 C 22,8 C 58 % 0 lf 1016,3 hPa 0,0 l/m 2 min 0 min 348 W/m 12,6 km/h (3 Bft)
23.07.2015 16:46 23,5 C 22,2 C 57 % 0 lf 1016,2 hPa 0,0 l/m 2 min 0 min 351 W/m 12,6 km/h (3 Bft)
23.07.2015 16:48 23,5 C 22,2 C 57 % 0 lf 1016,3 hPa 0,0 l/m 2 min 0 min 355 W/m 12,6 km/h (3 Bft)
23.07.2015 16:50 23,5 C 22,2 C 57 % 0 lf 1016,3 hPa 0,0 l/m 2 min 0 min 343 W/m 12,6 km/h (3 Bft)
23.07.2015 16:52 23,5 C 22,2 C 57 % 0 lf 1016,3 hPa 0,0 l/m 2 min 0 min 373 W/m 10,5 km/h (2 Bft)
23.07.2015 16:54 23,4 C 22,2 C 57 % 0 lf 1016,3 hPa 0,0 l/m 2 min 0 min 320 W/m 14,6 km/h (3 Bft)
23.07.2015 16:56 23,4 C 22,2 C 57 % 0 lf 1016,3 hPa 0,0 l/m 2 min 0 min 348 W/m 8,4 km/h (2 Bft)
23.07.2015 16:58 23,4 C 22,2 C 57 % 0 lf 1016,2 hPa 0,0 l/m 2 min 0 min 442 W/m 4,2 km/h (1 Bft)
23.07.2015 17:00 23,4 C 22,8 C 59 % 0 lf 1016,2 hPa 0,0 l/m 2 min 0 min 491 W/m 8,4 km/h (2 Bft)
23.07.2015 17:02 23,5 C 22,8 C 58 % 0 lf 1016,2 hPa 0,0 l/m 2 min 0 min 488 W/m 16,7 km/h (3 Bft)
23.07.2015 17:04 23,6 C 22,8 C 58 % 0 lf 1016,2 hPa 0,0 l/m 2 min 0 min 435 W/m 18,8 km/h (3 Bft)
23.07.2015 17:06 23,6 C 22,8 C 58 % 0 lf 1016,2 hPa 0,0 l/m 2 min 0 min 381 W/m 12,6 km/h (3 Bft)
23.07.2015 17:08 23,6 C 22,8 C 57 % 0 lf 1016,2 hPa 0,0 l/m 2 min 0 min 351 W/m 6,3 km/h (2 Bft)
23.07.2015 17:10 23,7 C 22,8 C 57 % 0 lf 1016,2 hPa 0,0 l/m 2 min 0 min 308 W/m 8,4 km/h (2 Bft)
23.07.2015 17:12 23,7 C 22,2 C 56 % 0 lf 1016,2 hPa 0,0 l/m 0 min 0 min 267 W/m 10,5 km/h (2 Bft)
23.07.2015 17:14 23,7 C 22,2 C 56 % 0 lf 1016,1 hPa 0,0 l/m 0 min 0 min 266 W/m 10,5 km/h (2 Bft)
23.07.2015 17:16 23,7 C 21,7 C 56 % 0 lf 1016,1 hPa 0,0 l/m 0 min 0 min 263 W/m 10,5 km/h (2 Bft)
23.07.2015 17:18 23,6 C 21,7 C 57 % 0 lf 1016,1 hPa 0,0 l/m 0 min 0 min 237 W/m 10,5 km/h (2 Bft)
23.07.2015 17:20 23,6 C 21,7 C 58 % 0 lf 1016,0 hPa 0,0 l/m 0 min 0 min 229 W/m 8,4 km/h (2 Bft)
23.07.2015 17:22 23,6 C 21,7 C 57 % 0 lf 1016,0 hPa 0,0 l/m 0 min 0 min 227 W/m 4,2 km/h (1 Bft)
23.07.2015 17:24 23,5 C 21,7 C 56 % 0 lf 1016,0 hPa 0,0 l/m 0 min 0 min 222 W/m 8,4 km/h (2 Bft)
23.07.2015 17:26 23,4 C 21,7 C 56 % 0 lf 1015,9 hPa 0,0 l/m 0 min 0 min 216 W/m 8,4 km/h (2 Bft)
23.07.2015 17:28 23,4 C 21,7 C 56 % 0 lf 1015,9 hPa 0,0 l/m 0 min 0 min 207 W/m 8,4 km/h (2 Bft)
23.07.2015 17:30 23,4 C 21,7 C 57 % 0 lf 1015,9 hPa 0,0 l/m 0 min 0 min 202 W/m 8,4 km/h (2 Bft)
23.07.2015 17:32 23,3 C 21,7 C 56 % 0 lf 1015,9 hPa 0,0 l/m 0 min 0 min 205 W/m 8,4 km/h (2 Bft)
23.07.2015 17:34 23,3 C 21,7 C 57 % 0 lf 1015,9 hPa 0,0 l/m 0 min 0 min 206 W/m 10,5 km/h (2 Bft)
23.07.2015 17:36 23,3 C 21,7 C 56 % 0 lf 1015,9 hPa 0,0 l/m 0 min 0 min 208 W/m 6,3 km/h (2 Bft)
23.07.2015 17:38 23,2 C 21,1 C 56 % 0 lf 1015,9 hPa 0,0 l/m 0 min 0 min 211 W/m 10,5 km/h (2 Bft)
23.07.2015 17:40 23,2 C 21,1 C 56 % 0 lf 1015,9 hPa 0,0 l/m 0 min 0 min 219 W/m 10,5 km/h (2 Bft)
23.07.2015 17:42 23,1 C 21,1 C 56 % 0 lf 1015,9 hPa 0,0 l/m 0 min 0 min 226 W/m 10,5 km/h (2 Bft)
23.07.2015 17:44 23,1 C 21,7 C 57 % 0 lf 1015,9 hPa 0,0 l/m 0 min 0 min 227 W/m 10,5 km/h (2 Bft)
23.07.2015 17:46 23,1 C 21,7 C 57 % 0 lf 1015,9 hPa 0,0 l/m 0 min 0 min 223 W/m 10,5 km/h (2 Bft)
23.07.2015 17:48 23,0 C 21,7 C 57 % 0 lf 1016,0 hPa 0,0 l/m 0 min 0 min 214 W/m 12,6 km/h (3 Bft)
23.07.2015 17:50 22,9 C 21,7 C 57 % 0 lf 1015,9 hPa 0,0 l/m 0 min 0 min 209 W/m 12,6 km/h (3 Bft)
23.07.2015 17:52 22,9 C 21,1 C 56 % 0 lf 1015,9 hPa 0,0 l/m 0 min 0 min 219 W/m 10,5 km/h (2 Bft)
23.07.2015 17:54 22,8 C 21,1 C 56 % 0 lf 1015,9 hPa 0,0 l/m 0 min 0 min 238 W/m 8,4 km/h (2 Bft)
23.07.2015 17:56 22,8 C 21,7 C 56 % 0 lf 1015,8 hPa 0,0 l/m 2 min 0 min 282 W/m 14,6 km/h (3 Bft)
23.07.2015 17:58 22,8 C 21,7 C 56 % 0 lf 1015,7 hPa 0,0 l/m 2 min 0 min 323 W/m 8,4 km/h (2 Bft)
23.07.2015 18:00 22,8 C 21,7 C 59 % 0 lf 1015,8 hPa 0,0 l/m 2 min 0 min 289 W/m 6,3 km/h (2 Bft)
23.07.2015 18:02 22,8 C 21,7 C 57 % 0 lf 1015,8 hPa 0,0 l/m 2 min 0 min 270 W/m 8,4 km/h (2 Bft)
23.07.2015 18:05 22,7 C 21,1 C 56 % 0 lf 1015,8 hPa 0,0 l/m 0 min 0 min 232 W/m 6,3 km/h (2 Bft)
23.07.2015 18:10 22,7 C 21,7 C 56 % 0 lf 1015,8 hPa 0,0 l/m 2 min 0 min 267 W/m 8,4 km/h (2 Bft)
23.07.2015 18:12 22,7 C 21,1 C 56 % 0 lf 1015,7 hPa 0,0 l/m 2 min 0 min 352 W/m 16,7 km/h (3 Bft)
23.07.2015 18:14 22,7 C 21,1 C 56 % 0 lf 1015,8 hPa 0,0 l/m 2 min 0 min 391 W/m 14,6 km/h (3 Bft)
23.07.2015 18:16 22,6 C 21,1 C 56 % 0 lf 1015,7 hPa 0,0 l/m 2 min 0 min 432 W/m 16,7 km/h (3 Bft)
23.07.2015 18:18 22,6 C 21,7 C 56 % 0 lf 1015,8 hPa 0,0 l/m 2 min 0 min 447 W/m 16,7 km/h (3 Bft)
23.07.2015 18:20 22,6 C 21,7 C 56 % 0 lf 1015,6 hPa 0,0 l/m 2 min 0 min 497 W/m 10,5 km/h (2 Bft)
23.07.2015 18:22 22,6 C 21,7 C 56 % 0 lf 1015,6 hPa 0,0 l/m 2 min 0 min 401 W/m 12,6 km/h (3 Bft)
23.07.2015 18:24 22,6 C 21,7 C 56 % 0 lf 1015,6 hPa 0,0 l/m 2 min 0 min 423 W/m 14,6 km/h (3 Bft)
23.07.2015 18:26 22,6 C 21,7 C 56 % 0 lf 1015,7 hPa 0,0 l/m 2 min 0 min 426 W/m 14,6 km/h (3 Bft)
23.07.2015 18:28 22,6 C 21,7 C 56 % 0 lf 1015,7 hPa 0,0 l/m 2 min 0 min 454 W/m 16,7 km/h (3 Bft)
23.07.2015 18:30 22,6 C 21,1 C 55 % 0 lf 1015,7 hPa 0,0 l/m 2 min 0 min 398 W/m 16,7 km/h (3 Bft)
23.07.2015 18:32 22,6 C 21,7 C 56 % 0 lf 1015,7 hPa 0,0 l/m 2 min 0 min 416 W/m 10,5 km/h (2 Bft)
23.07.2015 18:34 22,6 C 21,7 C 55 % 0 lf 1015,7 hPa 0,0 l/m 2 min 0 min 405 W/m 8,4 km/h (2 Bft)
23.07.2015 18:36 22,6 C 21,1 C 56 % 0 lf 1015,6 hPa 0,0 l/m 2 min 0 min 309 W/m 8,4 km/h (2 Bft)
23.07.2015 18:38 22,6 C 21,1 C 55 % 0 lf 1015,7 hPa 0,0 l/m 2 min 0 min 209 W/m 6,3 km/h (2 Bft)
23.07.2015 18:40 22,6 C 21,1 C 55 % 0 lf 1015,7 hPa 0,0 l/m 0 min 0 min 189 W/m 6,3 km/h (2 Bft)
23.07.2015 18:42 22,6 C 21,1 C 56 % 0 lf 1015,7 hPa 0,0 l/m 0 min 0 min 167 W/m 6,3 km/h (2 Bft)
23.07.2015 18:44 22,6 C 21,1 C 56 % 0 lf 1015,6 hPa 0,0 l/m 0 min 0 min 162 W/m 10,5 km/h (2 Bft)
23.07.2015 18:46 22,6 C 21,1 C 57 % 0 lf 1015,6 hPa 0,0 l/m 0 min 0 min 167 W/m 10,5 km/h (2 Bft)
23.07.2015 18:48 22,6 C 21,1 C 57 % 0 lf 1015,6 hPa 0,0 l/m 0 min 0 min 190 W/m 12,6 km/h (3 Bft)
23.07.2015 18:50 22,6 C 21,1 C 57 % 0 lf 1015,6 hPa 0,0 l/m 2 min 0 min 236 W/m 8,4 km/h (2 Bft)
23.07.2015 18:52 22,6 C 21,1 C 57 % 0 lf 1015,6 hPa 0,0 l/m 2 min 0 min 274 W/m 8,4 km/h (2 Bft)
23.07.2015 18:54 22,6 C 21,1 C 57 % 0 lf 1015,5 hPa 0,0 l/m 2 min 0 min 305 W/m 8,4 km/h (2 Bft)
23.07.2015 18:56 22,6 C 21,7 C 57 % 0 lf 1015,5 hPa 0,0 l/m 2 min 0 min 269 W/m 10,5 km/h (2 Bft)
23.07.2015 18:58 22,6 C 21,7 C 58 % 0 lf 1015,5 hPa 0,0 l/m 2 min 0 min 351 W/m 8,4 km/h (2 Bft)
23.07.2015 19:00 22,6 C 21,7 C 57 % 0 lf 1015,5 hPa 0,0 l/m 2 min 0 min 256 W/m 6,3 km/h (2 Bft)
23.07.2015 19:02 22,6 C 21,7 C 56 % 0 lf 1015,5 hPa 0,0 l/m 2 min 0 min 243 W/m 6,3 km/h (2 Bft)
23.07.2015 19:04 22,6 C 21,7 C 56 % 0 lf 1015,5 hPa 0,0 l/m 2 min 0 min 339 W/m 8,4 km/h (2 Bft)
23.07.2015 19:06 22,6 C 21,7 C 56 % 0 lf 1015,5 hPa 0,0 l/m 2 min 0 min 347 W/m 10,5 km/h (2 Bft)
23.07.2015 19:08 22,6 C 21,7 C 56 % 0 lf 1015,5 hPa 0,0 l/m 2 min 0 min 272 W/m 12,6 km/h (3 Bft)
23.07.2015 19:10 22,6 C 21,1 C 56 % 0 lf 1015,4 hPa 0,0 l/m 2 min 0 min 252 W/m 12,6 km/h (3 Bft)
23.07.2015 19:12 22,6 C 21,1 C 56 % 0 lf 1015,4 hPa 0,0 l/m 2 min 0 min 257 W/m 10,5 km/h (2 Bft)
23.07.2015 19:14 22,6 C 21,1 C 57 % 0 lf 1015,4 hPa 0,0 l/m 2 min 0 min 254 W/m 10,5 km/h (2 Bft)
23.07.2015 19:16 22,6 C 21,1 C 57 % 0 lf 1015,4 hPa 0,0 l/m 2 min 0 min 214 W/m 8,4 km/h (2 Bft)
23.07.2015 19:18 22,6 C 21,1 C 57 % 0 lf 1015,4 hPa 0,0 l/m 2 min 0 min 205 W/m 8,4 km/h (2 Bft)
23.07.2015 19:20 22,6 C 21,1 C 56 % 0 lf 1015,4 hPa 0,0 l/m 2 min 0 min 226 W/m 6,3 km/h (2 Bft)
23.07.2015 19:22 22,6 C 21,1 C 56 % 0 lf 1015,3 hPa 0,0 l/m 2 min 0 min 262 W/m 12,6 km/h (3 Bft)
23.07.2015 19:24 22,5 C 21,1 C 55 % 0 lf 1015,3 hPa 0,0 l/m 2 min 0 min 223 W/m 8,4 km/h (2 Bft)
23.07.2015 19:26 22,5 C 21,1 C 56 % 0 lf 1015,3 hPa 0,0 l/m 2 min 0 min 170 W/m 10,5 km/h (2 Bft)
23.07.2015 19:28 22,4 C 21,1 C 56 % 0 lf 1015,3 hPa 0,0 l/m 2 min 0 min 187 W/m 8,4 km/h (2 Bft)
23.07.2015 19:30 22,4 C 21,1 C 56 % 0 lf 1015,3 hPa 0,0 l/m 2 min 0 min 185 W/m 10,5 km/h (2 Bft)
23.07.2015 19:32 22,4 C 21,1 C 56 % 0 lf 1015,3 hPa 0,0 l/m 2 min 0 min 191 W/m 8,4 km/h (2 Bft)
23.07.2015 19:34 22,4 C 21,1 C 56 % 0 lf 1015,2 hPa 0,0 l/m 2 min 0 min 198 W/m 8,4 km/h (2 Bft)
23.07.2015 19:36 22,4 C 21,1 C 57 % 0 lf 1015,3 hPa 0,0 l/m 2 min 0 min 189 W/m 8,4 km/h (2 Bft)
23.07.2015 19:38 22,3 C 21,1 C 56 % 0 lf 1015,3 hPa 0,0 l/m 2 min 0 min 179 W/m 6,3 km/h (2 Bft)
23.07.2015 19:40 22,3 C 21,1 C 56 % 0 lf 1015,3 hPa 0,0 l/m 2 min 0 min 174 W/m 8,4 km/h (2 Bft)
23.07.2015 19:42 22,3 C 20,6 C 56 % 0 lf 1015,3 hPa 0,0 l/m 2 min 0 min 173 W/m 8,4 km/h (2 Bft)
23.07.2015 19:44 22,3 C 20,6 C 56 % 0 lf 1015,3 hPa 0,0 l/m 2 min 0 min 188 W/m 8,4 km/h (2 Bft)
23.07.2015 19:46 22,3 C 20,6 C 57 % 0 lf 1015,2 hPa 0,0 l/m 2 min 0 min 171 W/m 8,4 km/h (2 Bft)
23.07.2015 19:48 22,2 C 20,6 C 56 % 0 lf 1015,3 hPa 0,0 l/m 2 min 0 min 200 W/m 10,5 km/h (2 Bft)
23.07.2015 19:50 22,2 C 20,6 C 56 % 0 lf 1015,3 hPa 0,0 l/m 2 min 0 min 199 W/m 8,4 km/h (2 Bft)
23.07.2015 19:52 22,2 C 20,6 C 56 % 0 lf 1015,3 hPa 0,0 l/m 2 min 0 min 195 W/m 8,4 km/h (2 Bft)
23.07.2015 19:54 22,2 C 20,6 C 56 % 0 lf 1015,3 hPa 0,0 l/m 2 min 0 min 175 W/m 10,5 km/h (2 Bft)
23.07.2015 19:56 22,1 C 20,6 C 57 % 0 lf 1015,3 hPa 0,0 l/m 2 min 0 min 160 W/m 10,5 km/h (2 Bft)
23.07.2015 19:58 22,1 C 20,6 C 56 % 0 lf 1015,3 hPa 0,0 l/m 2 min 0 min 151 W/m 8,4 km/h (2 Bft)
23.07.2015 20:00 22,1 C 20,6 C 56 % 0 lf 1015,3 hPa 0,0 l/m 2 min 0 min 157 W/m 6,3 km/h (2 Bft)
23.07.2015 20:02 22,1 C 20,6 C 56 % 0 lf 1015,3 hPa 0,0 l/m 2 min 0 min 150 W/m 10,5 km/h (2 Bft)
23.07.2015 20:04 22,0 C 20,6 C 56 % 0 lf 1015,3 hPa 0,0 l/m 2 min 0 min 151 W/m 10,5 km/h (2 Bft)
23.07.2015 20:06 22,0 C 20,6 C 57 % 0 lf 1015,3 hPa 0,0 l/m 2 min 0 min 141 W/m 10,5 km/h (2 Bft)
23.07.2015 20:08 22,0 C 20,6 C 57 % 0 lf 1015,3 hPa 0,0 l/m 2 min 0 min 136 W/m 6,3 km/h (2 Bft)
23.07.2015 20:10 22,0 C 20,6 C 57 % 0 lf 1015,3 hPa 0,0 l/m 2 min 0 min 134 W/m 6,3 km/h (2 Bft)
23.07.2015 20:12 21,9 C 20,6 C 57 % 0 lf 1015,3 hPa 0,0 l/m 2 min 0 min 130 W/m 6,3 km/h (2 Bft)
23.07.2015 20:14 21,9 C 20,6 C 57 % 0 lf 1015,3 hPa 0,0 l/m 2 min 0 min 123 W/m 4,2 km/h (1 Bft)
23.07.2015 20:16 21,9 C 20,6 C 57 % 0 lf 1015,3 hPa 0,0 l/m 2 min 0 min 132 W/m 6,3 km/h (2 Bft)
23.07.2015 20:18 21,9 C 20,6 C 58 % 0 lf 1015,3 hPa 0,0 l/m 2 min 0 min 130 W/m 8,4 km/h (2 Bft)
23.07.2015 20:20 21,9 C 20,6 C 58 % 0 lf 1015,3 hPa 0,0 l/m 2 min 0 min 127 W/m 6,3 km/h (2 Bft)
23.07.2015 20:22 21,9 C 20,0 C 59 % 0 lf 1015,3 hPa 0,0 l/m 2 min 0 min 115 W/m 8,4 km/h (2 Bft)
23.07.2015 20:24 21,8 C 20,0 C 58 % 0 lf 1015,2 hPa 0,0 l/m 2 min 0 min 102 W/m 8,4 km/h (2 Bft)
23.07.2015 20:26 21,8 C 20,0 C 58 % 0 lf 1015,2 hPa 0,0 l/m 2 min 0 min 92 W/m 10,5 km/h (2 Bft)
23.07.2015 20:28 21,8 C 20,0 C 58 % 0 lf 1015,3 hPa 0,0 l/m 2 min 0 min 82 W/m 10,5 km/h (2 Bft)
23.07.2015 20:30 21,7 C 20,0 C 57 % 0 lf 1015,3 hPa 0,0 l/m 2 min 0 min 74 W/m 12,6 km/h (3 Bft)
23.07.2015 20:32 21,7 C 20,0 C 57 % 0 lf 1015,2 hPa 0,0 l/m 2 min 0 min 68 W/m 12,6 km/h (3 Bft)
23.07.2015 20:34 21,6 C 20,0 C 57 % 0 lf 1015,2 hPa 0,0 l/m 2 min 0 min 65 W/m 8,4 km/h (2 Bft)
23.07.2015 20:36 21,6 C 20,0 C 58 % 0 lf 1015,2 hPa 0,0 l/m 2 min 0 min 69 W/m 10,5 km/h (2 Bft)
23.07.2015 20:38 21,6 C 19,4 C 58 % 0 lf 1015,2 hPa 0,0 l/m 2 min 0 min 71 W/m 8,4 km/h (2 Bft)
23.07.2015 20:40 21,5 C 19,4 C 58 % 0 lf 1015,2 hPa 0,0 l/m 2 min 0 min 68 W/m 8,4 km/h (2 Bft)
23.07.2015 20:42 21,4 C 19,4 C 59 % 0 lf 1015,3 hPa 0,0 l/m 2 min 0 min 64 W/m 8,4 km/h (2 Bft)
23.07.2015 20:44 21,4 C 19,4 C 58 % 0 lf 1015,2 hPa 0,0 l/m 2 min 0 min 61 W/m 8,4 km/h (2 Bft)
23.07.2015 20:46 21,4 C 19,4 C 58 % 0 lf 1015,3 hPa 0,0 l/m 2 min 0 min 57 W/m 8,4 km/h (2 Bft)
23.07.2015 20:48 21,3 C 19,4 C 58 % 0 lf 1015,3 hPa 0,0 l/m 2 min 0 min 53 W/m 6,3 km/h (2 Bft)
23.07.2015 20:50 21,3 C 19,4 C 58 % 0 lf 1015,4 hPa 0,0 l/m 2 min 0 min 51 W/m 6,3 km/h (2 Bft)
23.07.2015 20:52 21,2 C 19,4 C 59 % 0 lf 1015,4 hPa 0,0 l/m 2 min 0 min 49 W/m 8,4 km/h (2 Bft)
23.07.2015 20:54 21,2 C 19,4 C 59 % 0 lf 1015,3 hPa 0,0 l/m 2 min 0 min 47 W/m 8,4 km/h (2 Bft)
23.07.2015 20:56 21,2 C 19,4 C 59 % 0 lf 1015,3 hPa 0,0 l/m 2 min 0 min 45 W/m 8,4 km/h (2 Bft)
23.07.2015 20:58 21,1 C 19,4 C 59 % 0 lf 1015,3 hPa 0,0 l/m 2 min 0 min 44 W/m 6,3 km/h (2 Bft)
23.07.2015 21:00 21,1 C 19,4 C 59 % 0 lf 1015,4 hPa 0,0 l/m 2 min 0 min 44 W/m 6,3 km/h (2 Bft)
23.07.2015 21:02 21,1 C 18,9 C 60 % 0 lf 1015,4 hPa 0,0 l/m 2 min 0 min 43 W/m 8,4 km/h (2 Bft)
23.07.2015 21:04 21,0 C 18,9 C 60 % 0 lf 1015,4 hPa 0,0 l/m 2 min 0 min 41 W/m 6,3 km/h (2 Bft)
23.07.2015 21:06 21,0 C 18,9 C 60 % 0 lf 1015,5 hPa 0,0 l/m 2 min 0 min 38 W/m 6,3 km/h (2 Bft)
23.07.2015 21:08 20,9 C 18,9 C 60 % 0 lf 1015,5 hPa 0,0 l/m 2 min 0 min 34 W/m 4,2 km/h (1 Bft)
23.07.2015 21:10 20,9 C 18,9 C 60 % 0 lf 1015,4 hPa 0,0 l/m 2 min 0 min 29 W/m 6,3 km/h (2 Bft)
23.07.2015 21:12 20,9 C 18,9 C 60 % 0 lf 1015,4 hPa 0,0 l/m 2 min 0 min 26 W/m 6,3 km/h (2 Bft)
23.07.2015 21:14 20,8 C 18,9 C 60 % 0 lf 1015,4 hPa 0,0 l/m 2 min 0 min 24 W/m 6,3 km/h (2 Bft)
23.07.2015 21:16 20,8 C 18,3 C 61 % 0 lf 1015,4 hPa 0,0 l/m 2 min 0 min 23 W/m 4,2 km/h (1 Bft)
23.07.2015 21:18 20,8 C 18,3 C 60 % 0 lf 1015,4 hPa 0,0 l/m 2 min 0 min 21 W/m 6,3 km/h (2 Bft)
23.07.2015 21:20 20,7 C 18,3 C 61 % 0 lf 1015,5 hPa 0,0 l/m 2 min 0 min 21 W/m 4,2 km/h (1 Bft)
23.07.2015 21:22 20,7 C 18,3 C 61 % 0 lf 1015,5 hPa 0,0 l/m 2 min 0 min 20 W/m 6,3 km/h (2 Bft)
23.07.2015 21:24 20,7 C 17,8 C 61 % 0 lf 1015,4 hPa 0,0 l/m 0 min 0 min 19 W/m 6,3 km/h (2 Bft)
23.07.2015 21:26 20,6 C 17,8 C 61 % 0 lf 1015,4 hPa 0,0 l/m 0 min 0 min 16 W/m 6,3 km/h (2 Bft)
23.07.2015 21:28 20,6 C 17,8 C 61 % 0 lf 1015,5 hPa 0,0 l/m 0 min 0 min 14 W/m 6,3 km/h (2 Bft)
23.07.2015 21:30 20,6 C 17,8 C 61 % 0 lf 1015,5 hPa 0,0 l/m 0 min 0 min 12 W/m 6,3 km/h (2 Bft)
23.07.2015 21:32 20,5 C 17,2 C 61 % 0 lf 1015,5 hPa 0,0 l/m 0 min 0 min 12 W/m 4,2 km/h (1 Bft)
23.07.2015 21:34 20,4 C 17,2 C 61 % 0 lf 1015,6 hPa 0,0 l/m 0 min 0 min 10 W/m 4,2 km/h (1 Bft)
23.07.2015 21:36 20,4 C 17,2 C 62 % 0 lf 1015,5 hPa 0,0 l/m 0 min 0 min 9 W/m 4,2 km/h (1 Bft)
23.07.2015 21:38 20,3 C 16,7 C 62 % 0 lf 1015,6 hPa 0,0 l/m 0 min 0 min 8 W/m 6,3 km/h (2 Bft)
23.07.2015 21:40 20,3 C 17,2 C 62 % 0 lf 1015,6 hPa 0,0 l/m 0 min 0 min 7 W/m 4,2 km/h (1 Bft)
23.07.2015 21:42 20,2 C 16,7 C 62 % 0 lf 1015,6 hPa 0,0 l/m 0 min 0 min 7 W/m 4,2 km/h (1 Bft)
23.07.2015 21:44 20,2 C 16,7 C 62 % 0 lf 1015,6 hPa 0,0 l/m 0 min 0 min 7 W/m 4,2 km/h (1 Bft)
23.07.2015 21:46 20,1 C 16,7 C 62 % 0 lf 1015,6 hPa 0,0 l/m 0 min 0 min 5 W/m 4,2 km/h (1 Bft)
23.07.2015 21:48 20,1 C 16,7 C 62 % 0 lf 1015,6 hPa 0,0 l/m 0 min 0 min 5 W/m 4,2 km/h (1 Bft)
23.07.2015 21:50 20,0 C 16,1 C 63 % 0 lf 1015,6 hPa 0,0 l/m 0 min 0 min 5 W/m 2,1 km/h (1 Bft)
23.07.2015 21:52 19,9 C 16,1 C 63 % 0 lf 1015,6 hPa 0,0 l/m 0 min 0 min 2 W/m 2,1 km/h (1 Bft)
23.07.2015 21:54 19,9 C 16,1 C 64 % 0 lf 1015,6 hPa 0,0 l/m 0 min 0 min 0 W/m 0,0 km/h (0 Bft)
23.07.2015 21:56 19,8 C 16,1 C 64 % 0 lf 1015,7 hPa 0,0 l/m 0 min 0 min 0 W/m 0,0 km/h (0 Bft)
23.07.2015 21:58 19,8 C 16,1 C 64 % 0 lf 1015,7 hPa 0,0 l/m 0 min 0 min 0 W/m 0,0 km/h (0 Bft)
23.07.2015 22:00 19,7 C 16,1 C 65 % 0 lf 1015,7 hPa 0,0 l/m 0 min 0 min 0 W/m 2,1 km/h (1 Bft)
23.07.2015 22:02 19,7 C 16,1 C 65 % 0 lf 1015,7 hPa 0,0 l/m 0 min 0 min 0 W/m 2,1 km/h (1 Bft)
23.07.2015 22:04 19,6 C 16,1 C 66 % 0 lf 1015,7 hPa 0,0 l/m 0 min 0 min 0 W/m 2,1 km/h (1 Bft)
23.07.2015 22:06 19,6 C 16,1 C 66 % 0 lf 1015,8 hPa 0,0 l/m 0 min 0 min 0 W/m 2,1 km/h (1 Bft)
23.07.2015 22:08 19,5 C 16,1 C 67 % 0 lf 1015,8 hPa 0,0 l/m 0 min 0 min 0 W/m 2,1 km/h (1 Bft)
23.07.2015 22:10 19,4 C 15,6 C 67 % 0 lf 1015,8 hPa 0,0 l/m 0 min 0 min 0 W/m 2,1 km/h (1 Bft)
23.07.2015 22:12 19,4 C 15,6 C 67 % 0 lf 1015,9 hPa 0,0 l/m 0 min 0 min 0 W/m 2,1 km/h (1 Bft)
23.07.2015 22:14 19,3 C 15,6 C 67 % 0 lf 1015,8 hPa 0,0 l/m 0 min 0 min 0 W/m 2,1 km/h (1 Bft)
23.07.2015 22:16 19,2 C 15,6 C 68 % 0 lf 1015,8 hPa 0,0 l/m 0 min 0 min 0 W/m 2,1 km/h (1 Bft)
23.07.2015 22:18 19,2 C 15,6 C 68 % 0 lf 1015,8 hPa 0,0 l/m 0 min 0 min 0 W/m 2,1 km/h (1 Bft)
23.07.2015 22:20 19,1 C 15,6 C 68 % 0 lf 1015,8 hPa 0,0 l/m 0 min 0 min 0 W/m 2,1 km/h (1 Bft)
23.07.2015 22:22 19,0 C 15,6 C 68 % 0 lf 1015,8 hPa 0,0 l/m 0 min 0 min 0 W/m 2,1 km/h (1 Bft)
23.07.2015 22:24 18,9 C 15,6 C 68 % 0 lf 1015,8 hPa 0,0 l/m 0 min 0 min 0 W/m 2,1 km/h (1 Bft)
23.07.2015 22:26 18,9 C 15,6 C 69 % 0 lf 1015,8 hPa 0,0 l/m 0 min 0 min 0 W/m 2,1 km/h (1 Bft)
23.07.2015 22:28 18,8 C 15,6 C 68 % 0 lf 1015,8 hPa 0,0 l/m 0 min 0 min 0 W/m 0,0 km/h (0 Bft)
23.07.2015 22:30 18,8 C 15,6 C 69 % 0 lf 1015,9 hPa 0,0 l/m 0 min 0 min 0 W/m 0,0 km/h (0 Bft)
23.07.2015 22:32 18,7 C 15,6 C 69 % 0 lf 1015,8 hPa 0,0 l/m 0 min 0 min 0 W/m 0,0 km/h (0 Bft)
23.07.2015 22:34 18,7 C 15,0 C 69 % 0 lf 1015,8 hPa 0,0 l/m 0 min 0 min 0 W/m 0,0 km/h (0 Bft)
23.07.2015 22:36 18,6 C 15,0 C 70 % 0 lf 1015,8 hPa 0,0 l/m 0 min 0 min 0 W/m 0,0 km/h (0 Bft)
23.07.2015 22:38 18,6 C 15,0 C 70 % 0 lf 1015,9 hPa 0,0 l/m 0 min 0 min 0 W/m 0,0 km/h (0 Bft)
23.07.2015 22:40 18,5 C 15,0 C 70 % 0 lf 1015,8 hPa 0,0 l/m 0 min 0 min 0 W/m 0,0 km/h (0 Bft)
23.07.2015 22:42 18,4 C 15,0 C 71 % 0 lf 1015,8 hPa 0,0 l/m 0 min 0 min 0 W/m 0,0 km/h (0 Bft)
23.07.2015 22:44 18,4 C 15,0 C 71 % 0 lf 1015,8 hPa 0,0 l/m 0 min 0 min 0 W/m 0,0 km/h (0 Bft)
23.07.2015 22:46 18,3 C 15,0 C 71 % 0 lf 1015,8 hPa 0,0 l/m 0 min 0 min 0 W/m 0,0 km/h (0 Bft)
23.07.2015 22:48 18,3 C 15,0 C 72 % 0 lf 1015,7 hPa 0,0 l/m 0 min 0 min 0 W/m 0,0 km/h (0 Bft)
23.07.2015 22:50 18,2 C 15,0 C 72 % 0 lf 1015,8 hPa 0,0 l/m 0 min 0 min 0 W/m 0,0 km/h (0 Bft)
23.07.2015 22:52 18,2 C 15,0 C 72 % 0 lf 1015,7 hPa 0,0 l/m 0 min 0 min 0 W/m 0,0 km/h (0 Bft)
23.07.2015 22:54 18,1 C 15,0 C 72 % 0 lf 1015,6 hPa 0,0 l/m 0 min 0 min 0 W/m 0,0 km/h (0 Bft)
23.07.2015 22:56 18,1 C 15,0 C 73 % 0 lf 1015,6 hPa 0,0 l/m 0 min 0 min 0 W/m 0,0 km/h (0 Bft)
23.07.2015 22:58 18,0 C 15,0 C 73 % 0 lf 1015,7 hPa 0,0 l/m 0 min 0 min 0 W/m 0,0 km/h (0 Bft)
23.07.2015 23:00 17,9 C 15,0 C 73 % 0 lf 1015,6 hPa 0,0 l/m 0 min 0 min 0 W/m 0,0 km/h (0 Bft)
23.07.2015 23:02 17,9 C 15,0 C 74 % 0 lf 1015,6 hPa 0,0 l/m 0 min 0 min 0 W/m 0,0 km/h (0 Bft)
23.07.2015 23:04 17,8 C 15,0 C 74 % 0 lf 1015,6 hPa 0,0 l/m 0 min 0 min 0 W/m 0,0 km/h (0 Bft)
23.07.2015 23:06 17,8 C 15,0 C 74 % 0 lf 1015,6 hPa 0,0 l/m 0 min 0 min 0 W/m 0,0 km/h (0 Bft)
23.07.2015 23:08 17,8 C 15,0 C 74 % 0 lf 1015,6 hPa 0,0 l/m 0 min 0 min 0 W/m 0,0 km/h (0 Bft)
23.07.2015 23:10 17,7 C 15,0 C 74 % 0 lf 1015,6 hPa 0,0 l/m 0 min 0 min 0 W/m 2,1 km/h (1 Bft)
23.07.2015 23:12 17,7 C 15,0 C 75 % 0 lf 1015,6 hPa 0,0 l/m 0 min 0 min 0 W/m 2,1 km/h (1 Bft)
23.07.2015 23:14 17,7 C 15,0 C 74 % 0 lf 1015,6 hPa 0,0 l/m 0 min 0 min 0 W/m 0,0 km/h (0 Bft)
23.07.2015 23:16 17,6 C 15,0 C 74 % 0 lf 1015,5 hPa 0,0 l/m 0 min 0 min 0 W/m 2,1 km/h (1 Bft)
23.07.2015 23:18 17,6 C 15,0 C 75 % 0 lf 1015,5 hPa 0,0 l/m 0 min 0 min 0 W/m 2,1 km/h (1 Bft)
23.07.2015 23:20 17,6 C 15,0 C 75 % 0 lf 1015,5 hPa 0,0 l/m 0 min 0 min 0 W/m 2,1 km/h (1 Bft)
23.07.2015 23:22 17,5 C 15,0 C 75 % 0 lf 1015,5 hPa 0,0 l/m 0 min 0 min 0 W/m 2,1 km/h (1 Bft)
23.07.2015 23:24 17,5 C 15,0 C 76 % 0 lf 1015,5 hPa 0,0 l/m 0 min 0 min 0 W/m 2,1 km/h (1 Bft)
23.07.2015 23:26 17,4 C 15,0 C 76 % 0 lf 1015,5 hPa 0,0 l/m 0 min 0 min 0 W/m 2,1 km/h (1 Bft)
23.07.2015 23:28 17,4 C 15,0 C 76 % 0 lf 1015,5 hPa 0,0 l/m 0 min 0 min 0 W/m 0,0 km/h (0 Bft)
23.07.2015 23:30 17,4 C 15,0 C 76 % 0 lf 1015,5 hPa 0,0 l/m 0 min 0 min 0 W/m 0,0 km/h (0 Bft)
23.07.2015 23:32 17,3 C 15,0 C 76 % 0 lf 1015,5 hPa 0,0 l/m 0 min 0 min 0 W/m 0,0 km/h (0 Bft)
23.07.2015 23:34 17,3 C 15,0 C 75 % 0 lf 1015,5 hPa 0,0 l/m 0 min 0 min 0 W/m 0,0 km/h (0 Bft)
23.07.2015 23:36 17,3 C 15,0 C 75 % 0 lf 1015,5 hPa 0,0 l/m 0 min 0 min 0 W/m 0,0 km/h (0 Bft)
23.07.2015 23:38 17,3 C 15,0 C 75 % 0 lf 1015,5 hPa 0,0 l/m 0 min 0 min 0 W/m 0,0 km/h (0 Bft)
23.07.2015 23:40 17,2 C 15,0 C 76 % 0 lf 1015,4 hPa 0,0 l/m 0 min 0 min 0 W/m 0,0 km/h (0 Bft)
23.07.2015 23:42 17,2 C 15,0 C 76 % 0 lf 1015,4 hPa 0,0 l/m 0 min 0 min 0 W/m 0,0 km/h (0 Bft)
23.07.2015 23:44 17,2 C 15,0 C 76 % 0 lf 1015,5 hPa 0,0 l/m 0 min 0 min 0 W/m 0,0 km/h (0 Bft)
23.07.2015 23:46 17,2 C 15,0 C 76 % 0 lf 1015,5 hPa 0,0 l/m 0 min 0 min 0 W/m 0,0 km/h (0 Bft)
23.07.2015 23:48 17,1 C 15,0 C 76 % 0 lf 1015,5 hPa 0,0 l/m 0 min 0 min 0 W/m 0,0 km/h (0 Bft)
23.07.2015 23:50 17,1 C 15,0 C 76 % 0 lf 1015,5 hPa 0,0 l/m 0 min 0 min 0 W/m 0,0 km/h (0 Bft)
23.07.2015 23:52 17,1 C 15,0 C 77 % 0 lf 1015,5 hPa 0,0 l/m 0 min 0 min 0 W/m 2,1 km/h (1 Bft)
23.07.2015 23:54 17,1 C 15,0 C 77 % 0 lf 1015,5 hPa 0,0 l/m 0 min 0 min 0 W/m 2,1 km/h (1 Bft)
23.07.2015 23:56 17,1 C 15,0 C 77 % 0 lf 1015,5 hPa 0,0 l/m 0 min 0 min 0 W/m 0,0 km/h (0 Bft)
23.07.2015 23:58 17,1 C 15,0 C 77 % 0 lf 1015,6 hPa 0,0 l/m 0 min 0 min 0 W/m 2,1 km/h (1 Bft)
_ Min-Zeit 06:50 05:46 18:30 00:00 00:14 - - - - 21:54
Minimum _ 14,3 C 13,3 C 55 % 0 lf 1014,6 hPa - - - - 0,0 km/h (0 Bft)
_ Max-Zeit 17:10 12:24 07:38 00:00 11:17 00:00 06:20 00:00 11:36 14:10
Maximum _ 23,7 C 26,1 C 88 % 0 lf 1017,8 hPa 0,0 l/m 2 min 0 min 1036 W/m 41,8 km/h
N-NO (6 Bft)
Durchschnitt _ 19,5 C 18,2 C 70 % 0 lf 1016,2 hPa #0,0 l/m #10:18 h #0 min. 280 W/m 9,5 km/h (2 Bft)
© 2015 W. Hausmann